BAW12 WSSS-EGLL

Flight info

Callsign BAW12
Flight time 13h 29m
Altitude 30000
Route AROSO3A AROSO Y513 KALIL Y501 RINBA Y503 VPL P628 IGREX/N0511F320 P628 URKOK DCT NIKIR DCT OPASA P628 ASOPO A791 BPL DCT IBANI P628 NIKOT/N0504F340 P628 RK G202 ZB L750 RANAH B449 ETRAP B447 KRS/N0486F360 B143 TUNEK A909 RODAR M11 REBLO UM11 CRM UL746 ODERO DCT OPT DCT SOKRU DCT BEGLA/N0477F380 DCT DEXIT DCT INBED DCT BOMBI DCT ADKUV DCT SOGRI DCT DENUT L608 LOGAN
Aircraft B77W/H-SDE1E2E3FGHIJ2J3J4J5M1RWXY/LB1D1

Departure

Time 2026-05-05 14:58
Airport Singapore Changi Airport (WSSS)

Arrival

Time 2026-05-06 04:28
Airport London Heathrow Airport (EGLL)
Time Latitude Longitude Altitude Speed Heading
2026-05-05 14:18 1.36419 103.99235 29 ft 0 kts 143°
2026-05-05 14:43 1.36435 103.99223 28 ft 4 kts 143°
2026-05-05 14:43 1.36455 103.99207 27 ft 2 kts 138°
2026-05-05 14:43 1.36468 103.99190 27 ft 4 kts 80°
2026-05-05 14:43 1.36455 103.99172 25 ft 4 kts 39°
2026-05-05 14:44 1.36440 103.99158 27 ft 0 kts 53°
2026-05-05 14:46 1.36446 103.99167 29 ft 5 kts 53°
2026-05-05 14:46 1.36469 103.99197 29 ft 6 kts 53°
2026-05-05 14:46 1.36493 103.99228 29 ft 6 kts 52°
2026-05-05 14:47 1.36529 103.99274 29 ft 9 kts 52°
2026-05-05 14:47 1.36578 103.99360 29 ft 22 kts 83°
2026-05-05 14:47 1.36526 103.99518 29 ft 24 kts 112°
2026-05-05 14:47 1.36468 103.99654 29 ft 8 kts 121°
2026-05-05 14:48 1.36411 103.99682 29 ft 15 kts 183°
2026-05-05 14:48 1.36298 103.99672 29 ft 17 kts 144°
2026-05-05 14:48 1.36186 103.99694 29 ft 18 kts 199°
2026-05-05 14:48 1.36073 103.99647 29 ft 18 kts 203°
2026-05-05 14:49 1.35960 103.99599 29 ft 18 kts 203°
2026-05-05 14:49 1.35847 103.99550 29 ft 18 kts 202°
2026-05-05 14:49 1.35734 103.99502 29 ft 18 kts 203°
2026-05-05 14:49 1.35621 103.99455 29 ft 18 kts 201°
2026-05-05 14:50 1.35579 103.99438 29 ft 0 kts 202°
2026-05-05 14:50 1.35569 103.99434 29 ft 6 kts 202°
2026-05-05 14:50 1.35488 103.99400 29 ft 19 kts 202°
2026-05-05 14:51 1.35322 103.99332 29 ft 32 kts 202°
2026-05-05 14:51 1.35084 103.99233 29 ft 42 kts 205°
2026-05-05 14:51 1.34819 103.99118 29 ft 40 kts 202°
2026-05-05 14:51 1.34571 103.99015 29 ft 37 kts 202°
2026-05-05 14:52 1.34342 103.98915 29 ft 34 kts 202°
2026-05-05 14:52 1.34129 103.98828 29 ft 32 kts 203°
2026-05-05 14:52 1.33931 103.98744 29 ft 30 kts 202°
2026-05-05 14:52 1.33739 103.98663 29 ft 30 kts 204°
2026-05-05 14:53 1.33548 103.98580 29 ft 30 kts 200°
2026-05-05 14:53 1.33355 103.98503 29 ft 30 kts 203°
2026-05-05 14:53 1.33163 103.98421 29 ft 30 kts 203°
2026-05-05 14:53 1.33021 103.98361 29 ft 13 kts 197°
2026-05-05 14:54 1.32978 103.98366 29 ft 0 kts 141°
2026-05-05 14:56 1.32962 103.98388 29 ft 14 kts 121°
2026-05-05 14:57 1.32925 103.98486 29 ft 7 kts 89°
2026-05-05 14:57 1.32964 103.98528 29 ft 6 kts 24°
2026-05-05 14:57 1.32987 103.98538 29 ft 20 kts 24°
2026-05-05 14:57 1.33347 103.98690 29 ft 90 kts 23°
2026-05-05 14:58 1.34119 103.99015 28 ft 148 kts 22°
2026-05-05 14:58 1.35224 103.99467 31 ft 192 kts 20°
2026-05-05 14:58 1.36475 103.99984 313 ft 194 kts 23°
2026-05-05 14:58 1.37722 104.00513 769 ft 196 kts 21°
2026-05-05 14:59 1.39010 104.01039 1125 ft 205 kts 24°
2026-05-05 14:59 1.40336 104.01620 1619 ft 209 kts 24°
2026-05-05 14:59 1.41723 104.02221 1839 ft 228 kts 24°
2026-05-05 14:59 1.43262 104.02878 1995 ft 251 kts 24°
2026-05-05 15:00 1.44928 104.03584 2391 ft 265 kts 23°
2026-05-05 15:00 1.46092 104.04075 2748 ft 271 kts 23°
2026-05-05 15:00 1.48445 104.04973 2985 ft 276 kts
2026-05-05 15:00 1.50334 104.04815 3017 ft 276 kts 338°
2026-05-05 15:01 1.52033 104.03951 3029 ft 275 kts 331°
2026-05-05 15:01 1.53722 104.03031 3014 ft 277 kts 332°
2026-05-05 15:01 1.55412 104.02115 3006 ft 276 kts 332°
2026-05-05 15:01 1.57099 104.01200 2999 ft 276 kts 332°
2026-05-05 15:02 1.58780 104.00288 3001 ft 275 kts 332°
2026-05-05 15:02 1.60460 103.99378 3000 ft 274 kts 332°
2026-05-05 15:02 1.62137 103.98471 3001 ft 273 kts 332°
2026-05-05 15:02 1.63809 103.97568 3000 ft 273 kts 332°
2026-05-05 15:03 1.64918 103.96968 2998 ft 273 kts 332°
2026-05-05 15:03 1.66588 103.96066 3001 ft 273 kts 332°
2026-05-05 15:03 1.68255 103.95166 2995 ft 273 kts 332°
2026-05-05 15:03 1.69925 103.94264 3002 ft 273 kts 332°
2026-05-05 15:04 1.71597 103.93363 3000 ft 273 kts 332°
2026-05-05 15:04 1.73270 103.92460 3002 ft 274 kts 332°
2026-05-05 15:04 1.74944 103.91554 2998 ft 272 kts 330°
2026-05-05 15:04 1.76368 103.90361 3000 ft 267 kts 308°
2026-05-05 15:05 1.78657 103.87309 3017 ft 278 kts 307°
2026-05-05 15:05 1.79827 103.85775 3012 ft 276 kts 307°
2026-05-05 15:05 1.80989 103.84258 2999 ft 273 kts 307°
2026-05-05 15:06 1.82146 103.82752 3003 ft 272 kts 307°
2026-05-05 15:06 1.83295 103.81258 3009 ft 271 kts 307°
2026-05-05 15:06 1.84447 103.79764 3016 ft 271 kts 307°
2026-05-05 15:06 1.85603 103.78266 3013 ft 273 kts 308°
2026-05-05 15:07 1.86762 103.76765 3021 ft 273 kts 308°
2026-05-05 15:07 1.87928 103.75256 3015 ft 275 kts 308°
2026-05-05 15:07 1.89097 103.73741 3008 ft 276 kts 308°
2026-05-05 15:07 1.90256 103.72242 3011 ft 276 kts 308°
2026-05-05 15:08 1.91431 103.70717 3256 ft 276 kts 308°
2026-05-05 15:08 1.92601 103.69198 3991 ft 276 kts 308°
2026-05-05 15:08 1.93776 103.67671 4738 ft 277 kts 307°
2026-05-05 15:08 1.94956 103.66137 5420 ft 280 kts 307°
2026-05-05 15:09 1.96151 103.64585 6066 ft 283 kts 307°
2026-05-05 15:09 1.97357 103.63017 6687 ft 286 kts 308°
2026-05-05 15:09 1.98576 103.61433 7294 ft 288 kts 308°
2026-05-05 15:09 1.99803 103.59838 7890 ft 291 kts 308°
2026-05-05 15:10 2.01033 103.58240 8447 ft 295 kts 308°
2026-05-05 15:10 2.02289 103.56607 9059 ft 298 kts 307°
2026-05-05 15:10 2.03558 103.54958 9662 ft 301 kts 307°
2026-05-05 15:10 2.04843 103.53288 10191 ft 305 kts 308°
2026-05-05 15:11 2.06168 103.51565 10427 ft 323 kts 308°
2026-05-05 15:11 2.07579 103.49731 10578 ft 343 kts 308°
2026-05-05 15:11 2.09076 103.47785 10732 ft 363 kts 308°
2026-05-05 15:11 2.10654 103.45732 10971 ft 380 kts 308°
2026-05-05 15:12 2.12288 103.43609 11429 ft 390 kts 308°
2026-05-05 15:12 2.13946 103.41442 12015 ft 393 kts 306°
2026-05-05 15:12 2.15249 103.39032 12490 ft 396 kts 288°
2026-05-05 15:12 2.16020 103.36365 12995 ft 404 kts 285°
2026-05-05 15:13 2.16761 103.33641 13666 ft 408 kts 285°
2026-05-05 15:13 2.17517 103.30897 14322 ft 411 kts 285°
2026-05-05 15:13 2.18294 103.28135 14935 ft 414 kts 286°
2026-05-05 15:13 2.19082 103.25388 15509 ft 419 kts 286°
2026-05-05 15:14 2.19899 103.22575 16077 ft 424 kts 286°
2026-05-05 15:14 2.20742 103.19694 16657 ft 428 kts 287°
2026-05-05 15:14 2.21573 103.16865 17210 ft 432 kts 287°
2026-05-05 15:14 2.22425 103.13966 17761 ft 436 kts 287°
2026-05-05 15:15 2.23285 103.11041 18290 ft 441 kts 287°
2026-05-05 15:15 2.24153 103.08088 18746 ft 445 kts 287°
2026-05-05 15:15 2.25029 103.05106 19216 ft 448 kts 287°
2026-05-05 15:15 2.25909 103.02109 19734 ft 451 kts 287°
2026-05-05 15:16 2.26768 102.99180 20211 ft 453 kts 287°
2026-05-05 15:16 2.27659 102.96144 20697 ft 457 kts 287°
2026-05-05 15:16 2.28556 102.93087 21153 ft 460 kts 287°
2026-05-05 15:16 2.29459 102.90009 21633 ft 463 kts 287°
2026-05-05 15:17 2.30369 102.86911 22084 ft 466 kts 287°
2026-05-05 15:17 2.31285 102.83781 22533 ft 469 kts 287°
2026-05-05 15:17 2.32204 102.80639 22978 ft 472 kts 287°
2026-05-05 15:17 2.33127 102.77476 23412 ft 475 kts 287°
2026-05-05 15:18 2.34058 102.74285 23749 ft 479 kts 287°
2026-05-05 15:18 2.34993 102.71080 24095 ft 482 kts 287°
2026-05-05 15:18 2.35935 102.67852 24459 ft 484 kts 287°
2026-05-05 15:18 2.36879 102.64616 24833 ft 486 kts 287°
2026-05-05 15:19 2.37815 102.61409 25182 ft 488 kts 287°
2026-05-05 15:19 2.38768 102.58142 25509 ft 491 kts 287°
2026-05-05 15:19 2.39726 102.54859 25842 ft 493 kts 287°
2026-05-05 15:19 2.40688 102.51563 26187 ft 495 kts 287°
2026-05-05 15:20 2.41654 102.48248 26532 ft 497 kts 286°
2026-05-05 15:20 2.42627 102.44913 26859 ft 500 kts 286°
2026-05-05 15:20 2.43602 102.41570 27165 ft 502 kts 286°
2026-05-05 15:20 2.44592 102.38208 27457 ft 503 kts 288°
2026-05-05 15:21 2.45954 102.34974 27641 ft 507 kts 300°
2026-05-05 15:21 2.47920 102.32047 27905 ft 508 kts 310°
2026-05-05 15:21 2.50341 102.29475 28203 ft 508 kts 320°
2026-05-05 15:21 2.53147 102.27311 28495 ft 508 kts 325°
2026-05-05 15:22 2.56002 102.25216 28754 ft 511 kts 324°
2026-05-05 15:22 2.58839 102.23057 28987 ft 513 kts 323°
2026-05-05 15:22 2.61620 102.20883 29218 ft 516 kts 322°
2026-05-05 15:22 2.64436 102.18664 29492 ft 516 kts 322°
2026-05-05 15:23 2.67258 102.16436 29767 ft 517 kts 322°
2026-05-05 15:23 2.72942 102.11956 29869 ft 518 kts 322°
2026-05-05 15:24 2.78593 102.07509 29876 ft 516 kts 322°
2026-05-05 15:24 2.84236 102.03074 29879 ft 515 kts 322°
2026-05-05 15:25 2.89794 101.98703 29888 ft 515 kts 322°
2026-05-05 15:25 2.95435 101.94267 29888 ft 516 kts 322°
2026-05-05 15:26 3.01064 101.89839 29897 ft 516 kts 322°
2026-05-05 15:26 3.06670 101.85428 29905 ft 516 kts 322°
2026-05-05 15:27 3.12309 101.80990 29901 ft 516 kts 322°
2026-05-05 15:27 3.17962 101.76541 29917 ft 516 kts 322°
2026-05-05 15:28 3.23602 101.72101 29908 ft 516 kts 322°
2026-05-05 15:28 3.29246 101.67658 29910 ft 516 kts 322°
2026-05-05 15:29 3.35229 101.63690 29920 ft 515 kts 332°
2026-05-05 15:29 3.41747 101.60724 29911 ft 515 kts 337°
2026-05-05 15:30 3.48337 101.57882 29918 ft 515 kts 337°
2026-05-05 15:30 3.54866 101.55015 29901 ft 516 kts 336°
2026-05-05 15:31 3.61437 101.52097 29905 ft 516 kts 336°
2026-05-05 15:31 3.68018 101.49173 29911 ft 516 kts 336°
2026-05-05 15:32 3.74593 101.46254 29926 ft 516 kts 336°
2026-05-05 15:32 3.81151 101.43344 29903 ft 515 kts 337°
2026-05-05 15:33 3.87690 101.40440 29901 ft 513 kts 337°
2026-05-05 15:33 3.94213 101.37540 29902 ft 512 kts 337°
2026-05-05 15:34 4.00709 101.34649 29907 ft 512 kts 337°
2026-05-05 15:34 4.07218 101.31752 29910 ft 512 kts 337°
2026-05-05 15:35 4.13686 101.28874 29894 ft 513 kts 337°
2026-05-05 15:35 4.20226 101.25963 29909 ft 515 kts 337°
2026-05-05 15:36 4.26788 101.23041 29915 ft 517 kts 337°
2026-05-05 15:36 4.33366 101.20111 29924 ft 518 kts 337°
2026-05-05 15:37 4.39952 101.17177 29944 ft 518 kts 337°
2026-05-05 15:37 4.46541 101.14242 29932 ft 518 kts 337°
2026-05-05 15:38 4.53116 101.11311 29941 ft 516 kts 337°
2026-05-05 15:38 4.59675 101.08398 29941 ft 515 kts 337°
2026-05-05 15:39 4.66249 101.05562 29937 ft 514 kts 338°
2026-05-05 15:39 4.72830 101.02745 29932 ft 514 kts 338°
2026-05-05 15:40 4.79305 100.99960 29921 ft 513 kts 338°
2026-05-05 15:40 4.85814 100.97152 29916 ft 514 kts 338°
2026-05-05 15:41 4.92381 100.94317 29926 ft 514 kts 338°
2026-05-05 15:41 4.98950 100.91481 29925 ft 513 kts 338°
2026-05-05 15:42 5.05505 100.88651 29914 ft 514 kts 338°
2026-05-05 15:42 5.12075 100.85815 29903 ft 513 kts 338°
2026-05-05 15:43 5.18633 100.82981 29904 ft 513 kts 338°
2026-05-05 15:43 5.25188 100.80149 29910 ft 513 kts 338°
2026-05-05 15:44 5.31735 100.77317 29905 ft 512 kts 336°
2026-05-05 15:44 5.37878 100.73698 29905 ft 513 kts 324°
2026-05-05 15:45 5.43207 100.68966 29911 ft 517 kts 315°
2026-05-05 15:45 5.48216 100.63768 29883 ft 518 kts 314°
2026-05-05 15:46 5.53237 100.58558 29873 ft 518 kts 315°
2026-05-05 15:46 5.57423 100.54262 29869 ft 518 kts 315°
2026-05-05 15:47 5.62508 100.49073 29864 ft 518 kts 316°
2026-05-05 15:47 5.67557 100.43924 29893 ft 517 kts 315°
2026-05-05 15:48 5.72595 100.38780 29911 ft 516 kts 315°
2026-05-05 15:48 5.77625 100.33641 29894 ft 515 kts 315°
2026-05-05 15:49 5.82644 100.28510 29898 ft 515 kts 315°
2026-05-05 15:49 5.87639 100.23405 29917 ft 515 kts 315°
2026-05-05 15:50 5.92663 100.18267 29913 ft 515 kts 315°
2026-05-05 15:50 5.97684 100.13131 29895 ft 514 kts 315°
2026-05-05 15:51 6.02682 100.08016 29924 ft 514 kts 316°
2026-05-05 15:51 6.07688 100.02894 29924 ft 513 kts 316°
2026-05-05 15:52 6.12575 99.97891 29919 ft 512 kts 316°
2026-05-05 15:52 6.17567 99.92778 29905 ft 512 kts 316°
2026-05-05 15:53 6.22560 99.87662 29918 ft 512 kts 316°
2026-05-05 15:53 6.27557 99.82542 29920 ft 513 kts 315°
2026-05-05 15:54 6.32495 99.77373 29901 ft 513 kts 310°
2026-05-05 15:54 6.36446 99.71397 29867 ft 515 kts 298°
2026-05-05 15:55 6.39174 99.64745 29869 ft 516 kts 291°
2026-05-05 15:55 6.41615 99.57949 29878 ft 517 kts 291°
2026-05-05 15:56 6.44115 99.51157 29896 ft 518 kts 291°
2026-05-05 15:56 6.45381 99.47767 29775 ft 518 kts 291°
2026-05-05 15:56 6.46634 99.44420 29858 ft 515 kts 291°
2026-05-05 15:57 6.49153 99.37677 29915 ft 515 kts 291°
2026-05-05 15:57 6.51666 99.30926 29924 ft 516 kts 291°
2026-05-05 15:58 6.54174 99.24163 29918 ft 516 kts 291°
2026-05-05 15:58 6.56681 99.17393 29918 ft 516 kts 291°
2026-05-05 15:59 6.59187 99.10627 29919 ft 516 kts 291°
2026-05-05 15:59 6.61675 99.03907 29923 ft 516 kts 291°
2026-05-05 16:00 6.64142 98.97243 29919 ft 515 kts 291°
2026-05-05 16:00 6.66643 98.90483 29918 ft 515 kts 291°
2026-05-05 16:01 6.69141 98.83728 29918 ft 515 kts 291°
2026-05-05 16:01 6.71633 98.76985 29918 ft 514 kts 291°
2026-05-05 16:02 6.74127 98.70233 29918 ft 514 kts 291°
2026-05-05 16:02 6.76620 98.63483 29916 ft 515 kts 291°
2026-05-05 16:03 6.79116 98.56720 29919 ft 516 kts 291°
2026-05-05 16:03 6.81619 98.49936 30133 ft 518 kts 291°
2026-05-05 16:03 6.82870 98.46544 30464 ft 516 kts 291°
2026-05-05 16:04 6.84114 98.43169 30833 ft 513 kts 291°
2026-05-05 16:04 6.85337 98.39850 31183 ft 511 kts 291°
2026-05-05 16:04 6.86571 98.36500 31526 ft 510 kts 291°
2026-05-05 16:04 6.87802 98.33159 31819 ft 509 kts 291°
2026-05-05 16:05 6.89037 98.29808 31866 ft 511 kts 291°
2026-05-05 16:05 6.91497 98.23125 31911 ft 508 kts 291°
2026-05-05 16:06 6.93946 98.16470 31919 ft 507 kts 291°
2026-05-05 16:06 6.96393 98.09816 31918 ft 506 kts 291°
2026-05-05 16:07 6.98985 98.03242 31905 ft 504 kts 299°
2026-05-05 16:07 7.03120 97.97736 31925 ft 503 kts 316°
2026-05-05 16:08 7.08625 97.93430 31925 ft 502 kts 325°
2026-05-05 16:08 7.14336 97.89337 31921 ft 504 kts 325°
2026-05-05 16:09 7.20024 97.85189 31921 ft 505 kts 324°
2026-05-05 16:09 7.25648 97.81028 31915 ft 505 kts 324°
2026-05-05 16:10 7.31291 97.76839 31916 ft 503 kts 324°
2026-05-05 16:10 7.36930 97.72655 31916 ft 502 kts 324°
2026-05-05 16:11 7.42560 97.68481 31914 ft 502 kts 324°
2026-05-05 16:12 7.53793 97.60148 31928 ft 501 kts 324°
2026-05-05 16:13 7.67854 97.49713 31916 ft 504 kts 324°
2026-05-05 16:13 7.73505 97.45533 31914 ft 503 kts 324°
2026-05-05 16:14 7.84782 97.37185 31919 ft 503 kts 324°
2026-05-05 16:15 7.96009 97.28863 31917 ft 502 kts 324°
2026-05-05 16:16 8.06609 97.19764 31922 ft 503 kts 310°
2026-05-05 16:17 8.12363 97.10899 31922 ft 504 kts 301°
2026-05-05 16:18 8.17747 97.01766 31916 ft 505 kts 301°
2026-05-05 16:19 8.23142 96.92761 31917 ft 505 kts 302°
2026-05-05 16:19 8.28608 96.83672 31915 ft 505 kts 302°
2026-05-05 16:20 8.35883 96.71554 31920 ft 507 kts 302°
2026-05-05 16:22 8.45039 96.56283 31918 ft 509 kts 301°
2026-05-05 16:23 8.52367 96.44048 31917 ft 508 kts 301°
2026-05-05 16:23 8.57860 96.34871 31916 ft 509 kts 301°
2026-05-05 16:24 8.61499 96.28787 31915 ft 509 kts 301°
2026-05-05 16:25 8.66987 96.19606 31914 ft 509 kts 301°
2026-05-05 16:25 8.72476 96.10416 31918 ft 509 kts 301°
2026-05-05 16:26 8.79729 95.98263 31914 ft 508 kts 301°
2026-05-05 16:27 8.83374 95.92145 31915 ft 508 kts 301°
2026-05-05 16:27 8.87014 95.86028 31915 ft 507 kts 301°
2026-05-05 16:28 8.90627 95.79955 31918 ft 507 kts 301°
2026-05-05 16:28 8.94268 95.73831 31917 ft 507 kts 301°
2026-05-05 16:29 8.97902 95.67717 31917 ft 508 kts 301°
2026-05-05 16:29 9.01533 95.61605 31915 ft 508 kts 301°
2026-05-05 16:30 9.05173 95.55475 31915 ft 508 kts 301°
2026-05-05 16:30 9.08807 95.49352 31916 ft 507 kts 301°
2026-05-05 16:31 9.12438 95.43231 31914 ft 507 kts 301°
2026-05-05 16:31 9.16063 95.37117 31914 ft 506 kts 301°
2026-05-05 16:32 9.19685 95.31004 31916 ft 506 kts 301°
2026-05-05 16:32 9.22692 95.25929 31915 ft 506 kts 301°
2026-05-05 16:33 9.26311 95.19817 31916 ft 506 kts 301°
2026-05-05 16:33 9.30514 95.12715 31912 ft 506 kts 301°
2026-05-05 16:34 9.33543 95.07594 31913 ft 506 kts 301°
2026-05-05 16:34 9.37155 95.01485 31912 ft 506 kts 301°
2026-05-05 16:35 9.40690 94.95503 31912 ft 506 kts 301°
2026-05-05 16:35 9.44306 94.89379 31914 ft 506 kts 301°
2026-05-05 16:36 9.47920 94.83257 31911 ft 505 kts 301°
2026-05-05 16:36 9.51528 94.77143 31911 ft 505 kts 301°
2026-05-05 16:37 9.55128 94.71038 31912 ft 504 kts 301°
2026-05-05 16:37 9.58722 94.64939 31912 ft 504 kts 301°
2026-05-05 16:38 9.62318 94.58835 31914 ft 504 kts 301°
2026-05-05 16:38 9.65892 94.52765 31910 ft 505 kts 301°
2026-05-05 16:39 9.69491 94.46650 31915 ft 506 kts 302°
2026-05-05 16:39 9.73681 94.40938 31913 ft 505 kts 313°
2026-05-05 16:40 9.78778 94.36058 31914 ft 504 kts 320°
2026-05-05 16:40 9.84167 94.31494 31916 ft 504 kts 321°
2026-05-05 16:41 9.89547 94.26930 31907 ft 504 kts 321°
2026-05-05 16:41 9.94895 94.22343 31911 ft 503 kts 320°
2026-05-05 16:42 10.00211 94.17759 31914 ft 502 kts 320°
2026-05-05 16:42 10.05528 94.13169 31908 ft 501 kts 320°
2026-05-05 16:43 10.10800 94.08618 31910 ft 501 kts 320°
2026-05-05 16:43 10.16107 94.04037 31911 ft 500 kts 320°
2026-05-05 16:44 10.21337 93.99520 31908 ft 500 kts 320°
2026-05-05 16:44 10.26636 93.94942 31912 ft 501 kts 320°
2026-05-05 16:45 10.31940 93.90357 31914 ft 501 kts 320°
2026-05-05 16:45 10.37246 93.85769 31910 ft 501 kts 320°
2026-05-05 16:46 10.42562 93.81169 31917 ft 502 kts 320°
2026-05-05 16:46 10.47884 93.76563 31910 ft 502 kts 320°
2026-05-05 16:47 10.53201 93.71958 31914 ft 503 kts 320°
2026-05-05 16:47 10.58496 93.67371 31915 ft 503 kts 320°
2026-05-05 16:48 10.63819 93.62757 31910 ft 502 kts 320°
2026-05-05 16:48 10.69134 93.58147 31917 ft 502 kts 320°
2026-05-05 16:49 10.74442 93.53541 31914 ft 501 kts 320°
2026-05-05 16:49 10.79747 93.48937 31912 ft 501 kts 320°
2026-05-05 16:50 10.85050 93.44332 31911 ft 500 kts 320°
2026-05-05 16:50 10.90342 93.39733 31915 ft 501 kts 320°
2026-05-05 16:51 10.95640 93.35128 31912 ft 501 kts 319°
2026-05-05 16:51 11.00899 93.30553 31914 ft 501 kts 319°
2026-05-05 16:52 11.06202 93.25939 31915 ft 502 kts 319°
2026-05-05 16:52 11.11511 93.21316 31913 ft 502 kts 319°
2026-05-05 16:53 11.16820 93.16692 31912 ft 502 kts 319°
2026-05-05 16:53 11.22130 93.12065 31912 ft 502 kts 319°
2026-05-05 16:54 11.27438 93.07436 31912 ft 502 kts 319°
2026-05-05 16:54 11.32748 93.02805 31913 ft 502 kts 319°
2026-05-05 16:55 11.37961 92.98254 31912 ft 501 kts 319°
2026-05-05 16:55 11.43251 92.93634 31911 ft 500 kts 319°
2026-05-05 16:56 11.48528 92.89024 31895 ft 499 kts 319°
2026-05-05 16:56 11.53768 92.84443 31892 ft 499 kts 319°
2026-05-05 16:57 11.59033 92.79837 31884 ft 499 kts 319°
2026-05-05 16:57 11.64300 92.75218 31887 ft 499 kts 318°
2026-05-05 16:58 11.69181 92.70174 31889 ft 499 kts 312°
2026-05-05 16:58 11.73892 92.64960 31889 ft 500 kts 312°
2026-05-05 16:59 11.78609 92.59747 31887 ft 500 kts 312°
2026-05-05 16:59 11.83347 92.54550 31886 ft 500 kts 312°
2026-05-05 17:00 11.88088 92.49367 31891 ft 499 kts 312°
2026-05-05 17:00 11.92794 92.44219 31909 ft 498 kts 312°
2026-05-05 17:01 11.97514 92.39052 31905 ft 497 kts 312°
2026-05-05 17:01 12.02221 92.33895 31907 ft 497 kts 312°
2026-05-05 17:02 12.06933 92.28729 31915 ft 496 kts 312°
2026-05-05 17:02 12.11612 92.23597 31909 ft 496 kts 312°
2026-05-05 17:03 12.16321 92.18429 31909 ft 496 kts 312°
2026-05-05 17:03 12.21028 92.13260 31912 ft 496 kts 312°
2026-05-05 17:04 12.25737 92.08086 31912 ft 496 kts 312°
2026-05-05 17:04 12.30437 92.02920 31914 ft 496 kts 312°
2026-05-05 17:05 12.35038 91.97859 31918 ft 496 kts 312°
2026-05-05 17:05 12.39744 91.92680 31915 ft 497 kts 312°
2026-05-05 17:06 12.44451 91.87496 31915 ft 497 kts 312°
2026-05-05 17:06 12.49153 91.82316 31918 ft 497 kts 312°
2026-05-05 17:07 12.53858 91.77128 31915 ft 497 kts 312°
2026-05-05 17:07 12.58567 91.71934 31913 ft 497 kts 312°
2026-05-05 17:08 12.63275 91.66739 31915 ft 497 kts 312°
2026-05-05 17:08 12.67978 91.61545 31916 ft 497 kts 312°
2026-05-05 17:09 12.72684 91.56344 31915 ft 497 kts 312°
2026-05-05 17:09 12.77388 91.51143 31918 ft 497 kts 311°
2026-05-05 17:10 12.82083 91.45949 31912 ft 496 kts 311°
2026-05-05 17:10 12.86768 91.40763 31912 ft 495 kts 311°
2026-05-05 17:11 12.91409 91.35623 31911 ft 494 kts 311°
2026-05-05 17:11 12.96078 91.30448 31908 ft 494 kts 311°
2026-05-05 17:12 13.00736 91.25283 31911 ft 494 kts 311°
2026-05-05 17:12 13.05398 91.20110 31903 ft 494 kts 311°
2026-05-05 17:13 13.10065 91.14929 31908 ft 494 kts 311°
2026-05-05 17:13 13.14732 91.09744 31915 ft 495 kts 311°
2026-05-05 17:14 13.19406 91.04549 31910 ft 494 kts 311°
2026-05-05 17:14 13.23995 90.99445 31908 ft 494 kts 311°
2026-05-05 17:15 13.28649 90.94266 31909 ft 493 kts 311°
2026-05-05 17:15 13.33271 90.89119 31909 ft 493 kts 311°
2026-05-05 17:16 13.37917 90.83941 31910 ft 493 kts 311°
2026-05-05 17:16 13.42564 90.78760 31911 ft 493 kts 311°
2026-05-05 17:17 13.47206 90.73581 31909 ft 493 kts 311°
2026-05-05 17:17 13.51853 90.68394 31910 ft 493 kts 311°
2026-05-05 17:18 13.56491 90.63213 31905 ft 492 kts 311°
2026-05-05 17:18 13.61128 90.58030 31911 ft 492 kts 311°
2026-05-05 17:19 13.65759 90.52850 31909 ft 492 kts 311°
2026-05-05 17:19 13.69605 90.48547 31909 ft 492 kts 311°
2026-05-05 17:20 13.74231 90.43367 31907 ft 491 kts 311°
2026-05-05 17:20 13.78855 90.38186 31905 ft 491 kts 311°
2026-05-05 17:21 13.83481 90.33000 31904 ft 492 kts 311°
2026-05-05 17:22 13.90400 90.25237 31904 ft 493 kts 311°
2026-05-05 17:22 13.95036 90.20031 31905 ft 493 kts 311°
2026-05-05 17:23 13.99673 90.14821 31908 ft 493 kts 311°
2026-05-05 17:23 14.04304 90.09615 31907 ft 494 kts 311°
2026-05-05 17:24 14.08942 90.04397 31906 ft 494 kts 311°
2026-05-05 17:24 14.13510 89.99254 31909 ft 494 kts 311°
2026-05-05 17:25 14.18146 89.94032 31902 ft 494 kts 311°
2026-05-05 17:25 14.22778 89.88810 31912 ft 494 kts 311°
2026-05-05 17:26 14.27409 89.83587 31905 ft 493 kts 311°
2026-05-05 17:26 14.32037 89.78363 31904 ft 493 kts 311°
2026-05-05 17:27 14.36626 89.73179 31904 ft 492 kts 311°
2026-05-05 17:27 14.41248 89.67955 31904 ft 492 kts 311°
2026-05-05 17:28 14.45861 89.62738 31904 ft 492 kts 311°
2026-05-05 17:28 14.50476 89.57515 31905 ft 492 kts 311°
2026-05-05 17:29 14.55089 89.52290 31902 ft 492 kts 311°
2026-05-05 17:29 14.59704 89.47061 31904 ft 492 kts 311°
2026-05-05 17:30 14.64316 89.41830 31902 ft 492 kts 311°
2026-05-05 17:30 14.68924 89.36599 31904 ft 492 kts 311°
2026-05-05 17:31 14.73503 89.31400 31906 ft 492 kts 311°
2026-05-05 17:31 14.78213 89.26268 31904 ft 492 kts 313°
2026-05-05 17:32 14.83016 89.21217 31901 ft 492 kts 313°
2026-05-05 17:32 14.87804 89.16165 31902 ft 492 kts 313°
2026-05-05 17:33 14.92582 89.11083 31901 ft 492 kts 313°
2026-05-05 17:33 14.97346 89.05997 31902 ft 492 kts 313°
2026-05-05 17:34 15.02071 89.00948 31903 ft 492 kts 313°
2026-05-05 17:34 15.06760 88.95936 31904 ft 492 kts 313°
2026-05-05 17:35 15.11517 88.90848 31901 ft 492 kts 313°
2026-05-05 17:35 15.16276 88.85755 31901 ft 492 kts 313°
2026-05-05 17:36 15.21028 88.80667 33433 ft 492 kts 312°
2026-05-05 17:36 15.23401 88.78123 31777 ft 486 kts 312°
2026-05-05 17:36 15.25727 88.75632 31855 ft 480 kts 312°
2026-05-05 17:37 15.30414 88.70604 31903 ft 490 kts 312°
2026-05-05 17:37 15.35179 88.65489 31901 ft 494 kts 312°
2026-05-05 17:38 15.39949 88.60367 31899 ft 493 kts 312°
2026-05-05 17:38 15.44671 88.55294 31900 ft 491 kts 312°
2026-05-05 17:39 15.49418 88.50189 31902 ft 491 kts 312°
2026-05-05 17:39 15.54152 88.45095 31897 ft 490 kts 312°
2026-05-05 17:40 15.58879 88.40004 31898 ft 490 kts 312°
2026-05-05 17:40 15.63608 88.34908 31900 ft 490 kts 312°
2026-05-05 17:41 15.68341 88.29803 31897 ft 491 kts 312°
2026-05-05 17:41 15.73071 88.24698 31899 ft 491 kts 312°
2026-05-05 17:42 15.77808 88.19583 31897 ft 492 kts 312°
2026-05-05 17:42 15.82548 88.14460 31893 ft 492 kts 312°
2026-05-05 17:43 15.87294 88.09327 31895 ft 492 kts 312°
2026-05-05 17:43 15.92007 88.04227 31896 ft 492 kts 311°
2026-05-05 17:44 15.96680 87.99165 31895 ft 492 kts 311°
2026-05-05 17:44 16.01422 87.94024 31896 ft 492 kts 312°
2026-05-05 17:45 16.06170 87.88875 31895 ft 493 kts 312°
2026-05-05 17:45 16.10913 87.83727 31894 ft 493 kts 312°
2026-05-05 17:46 16.15627 87.78605 31894 ft 493 kts 312°
2026-05-05 17:46 16.20377 87.73442 31894 ft 493 kts 311°
2026-05-05 17:47 16.25116 87.68286 31896 ft 493 kts 311°
2026-05-05 17:47 16.29857 87.63125 31896 ft 493 kts 311°
2026-05-05 17:48 16.34593 87.57965 31887 ft 493 kts 311°
2026-05-05 17:48 16.39336 87.52793 31898 ft 493 kts 311°
2026-05-05 17:49 16.44048 87.47651 31895 ft 493 kts 311°
2026-05-05 17:49 16.48787 87.42476 31882 ft 493 kts 311°
2026-05-05 17:50 16.53523 87.37299 31882 ft 493 kts 311°
2026-05-05 17:50 16.58259 87.32120 31899 ft 493 kts 311°
2026-05-05 17:51 16.62992 87.26938 33412 ft 493 kts 312°
2026-05-05 17:51 16.65331 87.24376 31775 ft 485 kts 311°
2026-05-05 17:51 16.67638 87.21850 31847 ft 481 kts 311°
2026-05-05 17:52 16.72242 87.16681 31885 ft 490 kts 307°
2026-05-05 17:52 16.76093 87.10846 31875 ft 490 kts 297°
2026-05-05 17:53 16.79324 87.04593 31884 ft 489 kts 296°
2026-05-05 17:53 16.82475 86.98443 31883 ft 488 kts 296°
2026-05-05 17:54 16.85704 86.92200 31885 ft 487 kts 296°
2026-05-05 17:54 16.88937 86.85988 31882 ft 486 kts 296°
2026-05-05 17:55 16.92168 86.79782 31888 ft 486 kts 296°
2026-05-05 17:55 16.95369 86.73627 31881 ft 485 kts 296°
2026-05-05 17:56 16.98586 86.67432 31883 ft 485 kts 296°
2026-05-05 17:56 17.01797 86.61243 31882 ft 485 kts 296°
2026-05-05 17:57 17.05014 86.55036 31887 ft 486 kts 296°
2026-05-05 17:57 17.08230 86.48825 31880 ft 486 kts 296°
2026-05-05 17:58 17.11449 86.42604 31879 ft 486 kts 296°
2026-05-05 17:58 17.14643 86.36424 31881 ft 486 kts 296°
2026-05-05 17:59 17.17860 86.30195 31876 ft 486 kts 296°
2026-05-05 17:59 17.21072 86.23969 31872 ft 486 kts 296°
2026-05-05 18:00 17.24288 86.17731 31894 ft 486 kts 295°
2026-05-05 18:00 17.27495 86.11503 31882 ft 486 kts 295°
2026-05-05 18:01 17.30699 86.05274 31872 ft 486 kts 295°
2026-05-05 18:01 17.33827 85.99188 31874 ft 485 kts 295°
2026-05-05 18:02 17.37041 85.92930 31882 ft 485 kts 295°
2026-05-05 18:02 17.40213 85.86747 31874 ft 484 kts 295°
2026-05-05 18:03 17.43397 85.80534 31870 ft 484 kts 295°
2026-05-05 18:03 17.46579 85.74320 31871 ft 484 kts 295°
2026-05-05 18:04 17.49753 85.68114 31868 ft 483 kts 295°
2026-05-05 18:04 17.52930 85.61899 31870 ft 483 kts 295°
2026-05-05 18:05 17.56100 85.55689 31866 ft 484 kts 295°
2026-05-05 18:05 17.59273 85.49468 31866 ft 484 kts 295°
2026-05-05 18:06 17.61909 85.44296 31866 ft 484 kts 295°
2026-05-05 18:06 17.65080 85.38068 31867 ft 484 kts 295°
2026-05-05 18:07 17.68255 85.31827 31862 ft 484 kts 295°
2026-05-05 18:07 17.71424 85.25589 31863 ft 484 kts 295°
2026-05-05 18:08 17.74587 85.19361 31859 ft 483 kts 295°
2026-05-05 18:08 17.77725 85.13175 31859 ft 483 kts 295°
2026-05-05 18:09 17.80872 85.06963 31857 ft 482 kts 295°
2026-05-05 18:09 17.84019 85.00745 31855 ft 482 kts 295°
2026-05-05 18:10 17.87119 84.94616 31855 ft 482 kts 295°
2026-05-05 18:10 17.90264 84.88391 31855 ft 483 kts 295°
2026-05-05 18:11 17.93410 84.82157 31855 ft 483 kts 295°
2026-05-05 18:11 17.96535 84.75959 31856 ft 483 kts 295°
2026-05-05 18:12 17.99679 84.69718 31854 ft 483 kts 295°
2026-05-05 18:12 18.02815 84.63484 31863 ft 484 kts 295°
2026-05-05 18:13 18.05963 84.57223 31855 ft 484 kts 295°
2026-05-05 18:13 18.09112 84.50953 31861 ft 485 kts 295°
2026-05-05 18:14 18.12258 84.44682 31860 ft 485 kts 295°
2026-05-05 18:14 18.15410 84.38393 31860 ft 485 kts 295°
2026-05-05 18:15 18.18532 84.32157 31860 ft 485 kts 295°
2026-05-05 18:15 18.21674 84.25874 31861 ft 485 kts 295°
2026-05-05 18:16 18.24813 84.19591 31859 ft 484 kts 295°
2026-05-05 18:16 18.28322 84.13562 31854 ft 487 kts 309°
2026-05-05 18:17 18.33540 84.08958 31862 ft 496 kts 327°
2026-05-05 18:17 18.39771 84.05805 31870 ft 498 kts 332°
2026-05-05 18:18 18.46098 84.02781 31866 ft 499 kts 332°
2026-05-05 18:18 18.52313 83.99751 31864 ft 500 kts 332°
2026-05-05 18:19 18.58569 83.96643 31860 ft 499 kts 331°
2026-05-05 18:19 18.64843 83.93507 31862 ft 499 kts 331°
2026-05-05 18:20 18.71118 83.90369 31866 ft 498 kts 331°
2026-05-05 18:20 18.77389 83.87234 31865 ft 498 kts 331°
2026-05-05 18:21 18.83645 83.84105 31869 ft 497 kts 331°
2026-05-05 18:21 18.89901 83.80974 31873 ft 497 kts 331°
2026-05-05 18:22 18.96156 83.77840 31871 ft 497 kts 331°
2026-05-05 18:22 19.02351 83.74733 31879 ft 497 kts 331°
2026-05-05 18:23 19.08603 83.71596 31874 ft 497 kts 331°
2026-05-05 18:23 19.14850 83.68458 31865 ft 497 kts 331°
2026-05-05 18:24 19.21093 83.65320 31867 ft 496 kts 331°
2026-05-05 18:24 19.27335 83.62180 31871 ft 496 kts 331°
2026-05-05 18:25 19.33575 83.59037 31861 ft 496 kts 331°
2026-05-05 18:25 19.39812 83.55894 31873 ft 497 kts 331°
2026-05-05 18:26 19.46056 83.52744 31865 ft 497 kts 331°
2026-05-05 18:26 19.52261 83.49612 31866 ft 497 kts 331°
2026-05-05 18:27 19.58509 83.46455 31867 ft 497 kts 331°
2026-05-05 18:27 19.64758 83.43296 31869 ft 497 kts 331°
2026-05-05 18:28 19.74124 83.38554 31853 ft 497 kts 331°
2026-05-05 18:28 19.80376 83.35385 31854 ft 497 kts 331°
2026-05-05 18:29 19.86629 83.32212 31840 ft 498 kts 331°
2026-05-05 18:29 19.92881 83.29039 31834 ft 498 kts 331°
2026-05-05 18:30 19.99130 83.25864 31819 ft 498 kts 331°
2026-05-05 18:30 20.05326 83.22712 31821 ft 498 kts 330°
2026-05-05 18:31 20.11574 83.19531 31802 ft 497 kts 330°
2026-05-05 18:31 20.17818 83.16350 31807 ft 497 kts 330°
2026-05-05 18:32 20.24051 83.13171 31805 ft 496 kts 330°
2026-05-05 18:32 20.30284 83.09990 31800 ft 496 kts 330°
2026-05-05 18:33 20.36510 83.06809 31813 ft 496 kts 330°
2026-05-05 18:33 20.42729 83.03629 31809 ft 496 kts 330°
2026-05-05 18:34 20.48904 83.00467 31804 ft 495 kts 330°
2026-05-05 18:34 20.54981 82.97265 31800 ft 493 kts 326°
2026-05-05 18:35 20.60541 82.93086 31823 ft 487 kts 316°
2026-05-05 18:35 20.65360 82.88071 31824 ft 483 kts 310°
2026-05-05 18:36 20.69998 82.82865 31816 ft 484 kts 310°
2026-05-05 18:36 20.74664 82.77671 31815 ft 485 kts 310°
2026-05-05 18:37 20.79353 82.72489 31815 ft 485 kts 310°
2026-05-05 18:37 20.84048 82.67302 31811 ft 485 kts 310°
2026-05-05 18:38 20.88741 82.62108 31816 ft 485 kts 310°
2026-05-05 18:38 20.93439 82.56921 31817 ft 485 kts 310°
2026-05-05 18:39 20.98118 82.51779 31825 ft 485 kts 310°
2026-05-05 18:39 21.02826 82.46600 31817 ft 486 kts 310°
2026-05-05 18:40 21.07533 82.41412 31819 ft 486 kts 310°
2026-05-05 18:40 21.12248 82.36207 31824 ft 488 kts 310°
2026-05-05 18:41 21.16985 82.30972 31827 ft 491 kts 310°
2026-05-05 18:41 21.21749 82.25703 31825 ft 493 kts 310°
2026-05-05 18:42 21.26530 82.20411 31830 ft 494 kts 310°
2026-05-05 18:42 21.31308 82.15117 31830 ft 494 kts 310°
2026-05-05 18:43 21.36079 82.09825 31822 ft 493 kts 310°
2026-05-05 18:43 21.40845 82.04532 31823 ft 492 kts 310°
2026-05-05 18:44 21.45497 81.99363 31821 ft 492 kts 310°
2026-05-05 18:44 21.50327 81.94149 31815 ft 492 kts 311°
2026-05-05 18:45 21.55190 81.88970 31814 ft 492 kts 311°
2026-05-05 18:45 21.60041 81.83777 31813 ft 492 kts 310°
2026-05-05 18:46 21.64887 81.78564 31816 ft 493 kts 310°
2026-05-05 18:46 21.69714 81.73365 31818 ft 495 kts 310°
2026-05-05 18:47 21.74577 81.68125 31817 ft 495 kts 310°
2026-05-05 18:47 21.79447 81.62868 31818 ft 496 kts 310°
2026-05-05 18:48 21.84262 81.57557 31813 ft 495 kts 309°
2026-05-05 18:48 21.89059 81.52238 31800 ft 495 kts 309°
2026-05-05 18:49 21.93873 81.46908 31813 ft 494 kts 309°
2026-05-05 18:49 21.98591 81.41539 31819 ft 493 kts 308°
2026-05-05 18:50 22.03252 81.36196 31819 ft 493 kts 309°
2026-05-05 18:50 22.07960 81.30817 31823 ft 493 kts 309°
2026-05-05 18:51 22.12683 81.25461 31827 ft 493 kts 309°
2026-05-05 18:51 22.17462 81.20148 31831 ft 493 kts 309°
2026-05-05 18:52 22.22242 81.14840 31856 ft 493 kts 309°
2026-05-05 18:52 22.27022 81.09510 31843 ft 494 kts 309°
2026-05-05 18:53 22.31803 81.04163 31828 ft 495 kts 309°
2026-05-05 18:53 22.36513 80.98890 31830 ft 495 kts 309°
2026-05-05 18:54 22.40488 80.94436 31843 ft 495 kts 309°
2026-05-05 18:54 22.45268 80.89076 31841 ft 494 kts 309°
2026-05-05 18:55 22.50034 80.83725 31841 ft 494 kts 309°
2026-05-05 18:55 22.54803 80.78366 31842 ft 494 kts 309°
2026-05-05 18:56 22.59573 80.72999 31829 ft 494 kts 309°
2026-05-05 18:56 22.64305 80.67669 31829 ft 493 kts 309°
2026-05-05 18:57 22.69059 80.62309 31830 ft 493 kts 309°
2026-05-05 18:57 22.73809 80.56947 31824 ft 493 kts 309°
2026-05-05 18:58 22.78561 80.51578 31827 ft 493 kts 309°
2026-05-05 18:58 22.83304 80.46214 31837 ft 492 kts 308°
2026-05-05 18:59 22.88044 80.40845 31825 ft 492 kts 308°
2026-05-05 18:59 22.92780 80.35477 31816 ft 492 kts 308°
2026-05-05 19:00 22.97484 80.30139 31801 ft 492 kts 308°
2026-05-05 19:00 23.02210 80.24770 31811 ft 492 kts 308°
2026-05-05 19:01 23.06936 80.19393 31817 ft 492 kts 308°
2026-05-05 19:01 23.11665 80.14009 31821 ft 492 kts 308°
2026-05-05 19:02 23.16184 80.08500 31804 ft 481 kts 298°
2026-05-05 19:02 23.17700 80.05306 31817 ft 473 kts 287°
2026-05-05 19:02 23.18679 80.01921 31816 ft 468 kts 279°
2026-05-05 19:03 23.19197 79.95094 31814 ft 461 kts 269°
2026-05-05 19:03 23.19409 79.88139 31817 ft 465 kts 269°
2026-05-05 19:04 23.19677 79.81099 31816 ft 467 kts 270°
2026-05-05 19:04 23.19978 79.74022 31813 ft 469 kts 270°
2026-05-05 19:05 23.20279 79.66936 31818 ft 469 kts 270°
2026-05-05 19:05 23.20575 79.59848 31816 ft 469 kts 270°
2026-05-05 19:06 23.20824 79.52765 31820 ft 468 kts 269°
2026-05-05 19:06 23.20943 79.45747 31819 ft 467 kts 268°
2026-05-05 19:07 23.21050 79.38683 31826 ft 466 kts 269°
2026-05-05 19:07 23.21169 79.31655 31821 ft 465 kts 269°
2026-05-05 19:08 23.21294 79.24631 31825 ft 464 kts 269°
2026-05-05 19:08 23.21415 79.17625 31828 ft 464 kts 269°
2026-05-05 19:09 23.21533 79.10651 31834 ft 463 kts 269°
2026-05-05 19:09 23.21647 79.03640 31827 ft 464 kts 269°
2026-05-05 19:10 23.21757 78.96720 31838 ft 465 kts 269°
2026-05-05 19:10 23.21867 78.89667 31841 ft 467 kts 269°
2026-05-05 19:11 23.21973 78.82602 31840 ft 468 kts 269°
2026-05-05 19:11 23.22077 78.75528 31833 ft 468 kts 269°
2026-05-05 19:12 23.22279 78.68456 31852 ft 468 kts 271°
2026-05-05 19:12 23.22654 78.61385 31841 ft 468 kts 271°
2026-05-05 19:13 23.23030 78.54328 31841 ft 467 kts 271°
2026-05-05 19:13 23.23373 78.47325 31842 ft 467 kts 271°
2026-05-05 19:14 23.23703 78.40276 31840 ft 467 kts 271°
2026-05-05 19:14 23.24028 78.33225 31846 ft 467 kts 271°
2026-05-05 19:15 23.24350 78.26174 31851 ft 467 kts 271°
2026-05-05 19:15 23.24671 78.19123 31849 ft 467 kts 271°
2026-05-05 19:16 23.24988 78.12062 31855 ft 467 kts 271°
2026-05-05 19:16 23.25303 78.05007 31855 ft 467 kts 271°
2026-05-05 19:17 23.25606 77.98111 31859 ft 467 kts 271°
2026-05-05 19:17 23.25914 77.91043 31864 ft 467 kts 271°
2026-05-05 19:18 23.26219 77.83986 31863 ft 467 kts 271°
2026-05-05 19:18 23.26521 77.76931 31868 ft 466 kts 271°
2026-05-05 19:19 23.26819 77.69886 31881 ft 467 kts 271°
2026-05-05 19:19 23.27115 77.62817 31874 ft 468 kts 271°
2026-05-05 19:20 23.27408 77.55732 31884 ft 469 kts 271°
2026-05-05 19:20 23.27697 77.48682 31883 ft 469 kts 271°
2026-05-05 19:21 23.28100 77.41608 31872 ft 468 kts 279°
2026-05-05 19:21 23.29154 77.38251 31888 ft 473 kts 295°
2026-05-05 19:21 23.31019 77.35281 31900 ft 480 kts 308°
2026-05-05 19:22 23.36260 77.30679 31874 ft 495 kts 331°
2026-05-05 19:22 23.42799 77.28240 31887 ft 500 kts 339°
2026-05-05 19:23 23.49481 77.26065 31886 ft 502 kts 339°
2026-05-05 19:23 23.56149 77.23802 31896 ft 502 kts 338°
2026-05-05 19:24 23.62785 77.21459 31883 ft 500 kts 338°
2026-05-05 19:24 23.69375 77.19102 31874 ft 496 kts 338°
2026-05-05 19:25 23.75876 77.16775 31876 ft 494 kts 338°
2026-05-05 19:25 23.82390 77.14446 31879 ft 492 kts 338°
2026-05-05 19:26 23.88901 77.12118 31889 ft 492 kts 338°
2026-05-05 19:26 23.95413 77.09786 31887 ft 493 kts 338°
2026-05-05 19:27 24.01936 77.07448 31887 ft 494 kts 338°
2026-05-05 19:27 24.08434 77.05117 31886 ft 495 kts 338°
2026-05-05 19:28 24.14993 77.02762 31964 ft 498 kts 338°
2026-05-05 19:28 24.18303 77.01572 32237 ft 499 kts 338°
2026-05-05 19:28 24.21597 77.00388 32651 ft 496 kts 337°
2026-05-05 19:29 24.24776 76.99246 33120 ft 493 kts 337°
2026-05-05 19:29 24.28027 76.98078 33587 ft 490 kts 337°
2026-05-05 19:29 24.31264 76.96913 33922 ft 490 kts 336°
2026-05-05 19:29 24.34476 76.95754 33871 ft 493 kts 336°
2026-05-05 19:30 24.41004 76.93399 33879 ft 488 kts 336°
2026-05-05 19:30 24.47409 76.91087 33897 ft 486 kts 336°
2026-05-05 19:31 24.53813 76.88773 33884 ft 483 kts 336°
2026-05-05 19:31 24.60192 76.86464 33872 ft 481 kts 336°
2026-05-05 19:32 24.66545 76.84163 33879 ft 480 kts 336°
2026-05-05 19:32 24.72878 76.81866 33882 ft 479 kts 336°
2026-05-05 19:33 24.79203 76.79569 33880 ft 479 kts 336°
2026-05-05 19:33 24.85534 76.77268 33884 ft 479 kts 336°
2026-05-05 19:34 24.91880 76.74959 33885 ft 480 kts 336°
2026-05-05 19:35 25.00681 76.70182 34955 ft 466 kts 318°
2026-05-05 19:35 25.03013 76.67800 33828 ft 456 kts 308°
2026-05-05 19:35 25.04981 76.65094 33871 ft 454 kts 304°
2026-05-05 19:36 25.08825 76.59457 33886 ft 466 kts 304°
2026-05-05 19:36 25.12753 76.53709 33885 ft 469 kts 304°
2026-05-05 19:37 25.16701 76.47999 33868 ft 468 kts 304°
2026-05-05 19:37 25.20661 76.42292 33882 ft 469 kts 304°
2026-05-05 19:38 25.24636 76.36558 33893 ft 471 kts 304°
2026-05-05 19:38 25.28631 76.30787 33890 ft 474 kts 304°
2026-05-05 19:39 25.32642 76.24983 33898 ft 476 kts 305°
2026-05-05 19:39 25.36677 76.19138 33886 ft 479 kts 305°
2026-05-05 19:40 25.40729 76.13261 34942 ft 481 kts 306°
2026-05-05 19:40 25.42743 76.10339 33809 ft 471 kts 305°
2026-05-05 19:40 25.44712 76.07483 33866 ft 465 kts 305°
2026-05-05 19:41 25.47992 76.02713 33882 ft 473 kts 305°
2026-05-05 19:41 25.51946 75.96955 33878 ft 478 kts 305°
2026-05-05 19:42 25.55964 75.91101 33874 ft 476 kts 305°
2026-05-05 19:42 25.59970 75.85257 33877 ft 476 kts 305°
2026-05-05 19:43 25.63973 75.79409 33872 ft 477 kts 305°
2026-05-05 19:43 25.67973 75.73558 33868 ft 474 kts 305°
2026-05-05 19:44 25.71944 75.67744 33861 ft 471 kts 305°
2026-05-05 19:44 25.75877 75.61976 33854 ft 468 kts 305°
2026-05-05 19:45 25.79765 75.56266 33863 ft 466 kts 305°
2026-05-05 19:45 25.83665 75.50532 33887 ft 466 kts 304°
2026-05-05 19:46 25.87579 75.44771 33865 ft 468 kts 304°
2026-05-05 19:46 25.91361 75.38885 33872 ft 467 kts 301°
2026-05-05 19:47 25.94950 75.32884 33848 ft 464 kts 301°
2026-05-05 19:47 25.96743 75.29888 33720 ft 462 kts 301°
2026-05-05 19:47 25.98496 75.26986 33791 ft 447 kts 301°
2026-05-05 19:48 26.01973 75.21260 33858 ft 455 kts 301°
2026-05-05 19:48 26.05567 75.15347 33858 ft 464 kts 301°
2026-05-05 19:49 26.09184 75.09395 33878 ft 463 kts 301°
2026-05-05 19:49 26.12789 75.03452 33857 ft 462 kts 301°
2026-05-05 19:50 26.16301 74.97655 33841 ft 461 kts 301°
2026-05-05 19:50 26.19570 74.91557 33855 ft 456 kts 296°
2026-05-05 19:51 26.22620 74.85363 33847 ft 455 kts 296°
2026-05-05 19:51 26.25664 74.79185 33850 ft 455 kts 296°
2026-05-05 19:52 26.28720 74.73005 33849 ft 455 kts 296°
2026-05-05 19:52 26.31782 74.66818 33849 ft 456 kts 296°
2026-05-05 19:53 26.34825 74.60662 33848 ft 457 kts 296°
2026-05-05 19:53 26.37897 74.54440 33829 ft 458 kts 296°
2026-05-05 19:54 26.40972 74.48200 33841 ft 459 kts 296°
2026-05-05 19:54 26.44054 74.41938 33839 ft 460 kts 296°
2026-05-05 19:55 26.47130 74.35678 33807 ft 460 kts 296°
2026-05-05 19:55 26.50198 74.29425 33823 ft 459 kts 296°
2026-05-05 19:56 26.53259 74.23179 33823 ft 458 kts 296°
2026-05-05 19:56 26.56291 74.16993 33812 ft 457 kts 296°
2026-05-05 19:57 26.59371 74.10789 33812 ft 456 kts 297°
2026-05-05 19:57 26.62449 74.04603 33803 ft 455 kts 297°
2026-05-05 19:58 26.65466 73.98522 33809 ft 453 kts 297°
2026-05-05 19:58 26.68515 73.92362 33799 ft 452 kts 297°
2026-05-05 19:59 26.71550 73.86216 33798 ft 451 kts 297°
2026-05-05 19:59 26.74560 73.80115 33801 ft 450 kts 297°
2026-05-05 20:00 26.77579 73.73984 33793 ft 450 kts 297°
2026-05-05 20:00 26.80598 73.67847 33800 ft 450 kts 297°
2026-05-05 20:01 26.83623 73.61688 33799 ft 451 kts 296°
2026-05-05 20:01 26.86649 73.55520 33796 ft 452 kts 296°
2026-05-05 20:02 26.89676 73.49339 33782 ft 452 kts 296°
2026-05-05 20:02 26.92701 73.43153 33784 ft 452 kts 296°
2026-05-05 20:03 26.95722 73.36969 33780 ft 452 kts 296°
2026-05-05 20:03 26.98720 73.30765 33782 ft 452 kts 296°
2026-05-05 20:04 27.01669 73.24601 33769 ft 451 kts 296°
2026-05-05 20:04 27.04633 73.18396 33710 ft 451 kts 296°
2026-05-05 20:05 27.07557 73.12272 33766 ft 438 kts 298°
2026-05-05 20:05 27.10431 73.06253 33778 ft 438 kts 298°
2026-05-05 20:06 27.13312 73.00212 33777 ft 440 kts 298°
2026-05-05 20:06 27.16162 72.94225 33755 ft 441 kts 298°
2026-05-05 20:07 27.19036 72.88179 33762 ft 441 kts 298°
2026-05-05 20:07 27.21923 72.82098 33762 ft 441 kts 298°
2026-05-05 20:08 27.24802 72.76023 33757 ft 440 kts 298°
2026-05-05 20:08 27.27676 72.69951 33758 ft 440 kts 298°
2026-05-05 20:09 27.30546 72.63880 33756 ft 439 kts 298°
2026-05-05 20:09 27.33409 72.57814 33747 ft 438 kts 298°
2026-05-05 20:10 27.36268 72.51750 33750 ft 438 kts 298°
2026-05-05 20:10 27.39120 72.45690 33746 ft 437 kts 298°
2026-05-05 20:11 27.41946 72.39676 33749 ft 437 kts 298°
2026-05-05 20:11 27.44807 72.33579 33742 ft 438 kts 298°
2026-05-05 20:12 27.47632 72.27552 33743 ft 438 kts 298°
2026-05-05 20:12 27.50472 72.21482 33756 ft 438 kts 298°
2026-05-05 20:13 27.53311 72.15405 33735 ft 438 kts 298°
2026-05-05 20:13 27.56146 72.09329 33730 ft 438 kts 298°
2026-05-05 20:14 27.58979 72.03249 33728 ft 437 kts 298°
2026-05-05 20:14 27.61761 71.97270 33723 ft 437 kts 297°
2026-05-05 20:15 27.64568 71.91228 33724 ft 437 kts 297°
2026-05-05 20:15 27.67385 71.85155 33717 ft 437 kts 297°
2026-05-05 20:16 27.70197 71.79085 33714 ft 436 kts 297°
2026-05-05 20:16 27.73002 71.73019 33738 ft 436 kts 298°
2026-05-05 20:17 27.75809 71.66941 33712 ft 436 kts 298°
2026-05-05 20:17 27.78614 71.60859 33703 ft 436 kts 298°
2026-05-05 20:18 27.81395 71.54822 33793 ft 437 kts 297°
2026-05-05 20:18 27.84215 71.48686 33784 ft 442 kts 297°
2026-05-05 20:19 27.87057 71.42498 33785 ft 445 kts 297°
2026-05-05 20:19 27.89842 71.36221 33786 ft 448 kts 296°
2026-05-05 20:20 27.92581 71.29892 33773 ft 448 kts 296°
2026-05-05 20:20 27.95323 71.23559 33780 ft 448 kts 296°
2026-05-05 20:21 27.98064 71.17244 33776 ft 447 kts 296°
2026-05-05 20:21 28.00796 71.10952 33766 ft 445 kts 296°
2026-05-05 20:22 28.03520 71.04667 33772 ft 444 kts 296°
2026-05-05 20:22 28.06172 70.98540 33774 ft 443 kts 296°
2026-05-05 20:23 28.08879 70.92273 33773 ft 443 kts 296°
2026-05-05 20:23 28.11603 70.85958 33760 ft 443 kts 296°
2026-05-05 20:24 28.14287 70.79726 33773 ft 443 kts 296°
2026-05-05 20:24 28.16986 70.73452 33784 ft 443 kts 296°
2026-05-05 20:25 28.19685 70.67164 33781 ft 443 kts 296°
2026-05-05 20:25 28.22376 70.60887 33780 ft 443 kts 296°
2026-05-05 20:26 28.25065 70.54605 33782 ft 442 kts 296°
2026-05-05 20:26 28.27747 70.48327 33783 ft 441 kts 296°
2026-05-05 20:27 28.30420 70.42061 33780 ft 441 kts 296°
2026-05-05 20:27 28.33091 70.35792 33783 ft 440 kts 296°
2026-05-05 20:28 28.36276 70.29939 33829 ft 439 kts 314°
2026-05-05 20:28 28.41338 70.25972 33793 ft 450 kts 332°
2026-05-05 20:29 28.46379 70.24361 33795 ft 455 kts 341°
2026-05-05 20:29 28.52579 70.22729 33801 ft 458 kts 341°
2026-05-05 20:30 28.58788 70.21050 33801 ft 459 kts 341°
2026-05-05 20:30 28.65000 70.19315 33803 ft 459 kts 341°
2026-05-05 20:31 28.71171 70.17569 33802 ft 459 kts 341°
2026-05-05 20:31 28.77359 70.15812 33802 ft 457 kts 341°
2026-05-05 20:32 28.83533 70.14058 33801 ft 456 kts 341°
2026-05-05 20:32 28.89691 70.12308 33835 ft 455 kts 341°
2026-05-05 20:33 28.95850 70.10555 33821 ft 455 kts 341°
2026-05-05 20:33 29.01958 70.08815 33816 ft 455 kts 341°
2026-05-05 20:34 29.08104 70.07062 33819 ft 455 kts 341°
2026-05-05 20:34 29.14262 70.05304 33826 ft 455 kts 341°
2026-05-05 20:35 29.20417 70.03544 33844 ft 456 kts 341°
2026-05-05 20:35 29.26568 70.01783 33837 ft 455 kts 341°
2026-05-05 20:36 29.32719 70.00020 33845 ft 455 kts 341°
2026-05-05 20:36 29.38718 69.98299 33848 ft 455 kts 341°
2026-05-05 20:37 29.44859 69.96534 33869 ft 455 kts 341°
2026-05-05 20:37 29.51004 69.94766 33863 ft 455 kts 341°
2026-05-05 20:38 29.57157 69.92994 33866 ft 456 kts 341°
2026-05-05 20:38 29.63329 69.91212 33879 ft 458 kts 341°
2026-05-05 20:39 29.69461 69.89442 33879 ft 456 kts 341°
2026-05-05 20:39 29.75613 69.87665 33888 ft 455 kts 341°
2026-05-05 20:40 29.81741 69.85891 33870 ft 453 kts 341°
2026-05-05 20:40 29.87855 69.84119 33895 ft 452 kts 341°
2026-05-05 20:41 29.93945 69.82351 33938 ft 451 kts 341°
2026-05-05 20:41 30.00045 69.80576 33931 ft 453 kts 341°
2026-05-05 20:42 30.06178 69.78791 33939 ft 455 kts 341°
2026-05-05 20:42 30.12331 69.76999 33931 ft 457 kts 341°
2026-05-05 20:43 30.18500 69.75199 33940 ft 457 kts 341°
2026-05-05 20:43 30.24634 69.73408 33951 ft 458 kts 341°
2026-05-05 20:44 30.30859 69.71769 33944 ft 460 kts 343°
2026-05-05 20:44 30.37124 69.70291 33943 ft 459 kts 343°
2026-05-05 20:45 30.46503 69.68045 33958 ft 458 kts 343°
2026-05-05 20:45 30.52735 69.66520 33943 ft 457 kts 343°
2026-05-05 20:46 30.58962 69.64989 33936 ft 457 kts 343°
2026-05-05 20:46 30.65179 69.63459 33948 ft 456 kts 343°
2026-05-05 20:47 30.71386 69.61930 33970 ft 456 kts 343°
2026-05-05 20:47 30.77571 69.60405 33961 ft 457 kts 343°
2026-05-05 20:48 30.83808 69.58865 33958 ft 458 kts 343°
2026-05-05 20:48 30.90046 69.57323 33958 ft 458 kts 343°
2026-05-05 20:49 30.96277 69.55782 33985 ft 458 kts 343°
2026-05-05 20:49 31.02515 69.54235 33971 ft 459 kts 343°
2026-05-05 20:50 31.08761 69.52685 33927 ft 459 kts 343°
2026-05-05 20:50 31.15009 69.51133 33952 ft 459 kts 343°
2026-05-05 20:51 31.21248 69.49580 33979 ft 458 kts 343°
2026-05-05 20:51 31.27485 69.48026 33970 ft 458 kts 343°
2026-05-05 20:52 31.33489 69.45955 33959 ft 448 kts 329°
2026-05-05 20:52 31.38517 69.41754 33959 ft 443 kts 314°
2026-05-05 20:53 31.42385 69.36203 33955 ft 441 kts 307°
2026-05-05 20:53 31.46148 69.30515 33968 ft 443 kts 307°
2026-05-05 20:54 31.49967 69.24820 33971 ft 445 kts 308°
2026-05-05 20:54 31.53819 69.19117 33947 ft 446 kts 308°
2026-05-05 20:55 31.57646 69.13452 33961 ft 445 kts 308°
2026-05-05 20:55 31.61491 69.07747 33970 ft 445 kts 308°
2026-05-05 20:56 31.65322 69.02053 33986 ft 444 kts 308°
2026-05-05 20:56 31.69130 68.96498 33975 ft 443 kts 309°
2026-05-05 20:57 31.73106 68.90977 33964 ft 442 kts 310°
2026-05-05 20:57 31.77082 68.85471 33944 ft 441 kts 309°
2026-05-05 20:58 31.81007 68.79991 33963 ft 441 kts 309°
2026-05-05 20:58 31.84942 68.74470 33971 ft 441 kts 309°
2026-05-05 20:59 31.88882 68.68928 33975 ft 442 kts 309°
2026-05-05 20:59 31.92828 68.63371 33970 ft 443 kts 309°
2026-05-05 21:00 31.96787 68.57790 33966 ft 443 kts 309°
2026-05-05 21:00 32.00727 68.52225 33940 ft 443 kts 309°
2026-05-05 21:01 32.04672 68.46646 33959 ft 443 kts 309°
2026-05-05 21:01 32.08589 68.41098 33963 ft 442 kts 309°
2026-05-05 21:02 32.12524 68.35516 33962 ft 443 kts 309°
2026-05-05 21:02 32.16464 68.29919 33957 ft 443 kts 309°
2026-05-05 21:03 32.20391 68.24333 33956 ft 442 kts 309°
2026-05-05 21:03 32.24323 68.18731 33947 ft 442 kts 309°
2026-05-05 21:04 32.28244 68.13135 33952 ft 442 kts 309°
2026-05-05 21:04 32.32141 68.07567 33953 ft 443 kts 309°
2026-05-05 21:05 32.36071 68.01941 33949 ft 443 kts 309°
2026-05-05 21:05 32.39936 67.96401 33947 ft 443 kts 309°
2026-05-05 21:06 32.43863 67.90763 33940 ft 443 kts 309°
2026-05-05 21:06 32.47784 67.85126 33946 ft 443 kts 308°
2026-05-05 21:07 32.51722 67.79501 33934 ft 444 kts 310°
2026-05-05 21:07 32.55828 67.74022 33939 ft 444 kts 311°
2026-05-05 21:08 32.59959 67.68566 33935 ft 444 kts 310°
2026-05-05 21:08 32.64041 67.63115 33931 ft 445 kts 310°
2026-05-05 21:09 32.68138 67.57611 33957 ft 445 kts 310°
2026-05-05 21:09 32.72239 67.52092 33936 ft 445 kts 310°
2026-05-05 21:10 32.76334 67.46575 33964 ft 444 kts 310°
2026-05-05 21:10 32.80372 67.41006 33958 ft 444 kts 309°
2026-05-05 21:11 32.84310 67.35351 33978 ft 444 kts 308°
2026-05-05 21:11 32.88241 67.29687 33971 ft 443 kts 309°
2026-05-05 21:12 32.92139 67.24092 33995 ft 440 kts 309°
2026-05-05 21:12 32.96043 67.18494 34005 ft 438 kts 309°
2026-05-05 21:13 32.99923 67.12923 34029 ft 436 kts 309°
2026-05-05 21:13 33.03788 67.07365 34027 ft 436 kts 309°
2026-05-05 21:14 33.07639 67.01819 34030 ft 438 kts 309°
2026-05-05 21:14 33.11468 66.96294 34042 ft 439 kts 309°
2026-05-05 21:15 33.15364 66.90663 34033 ft 441 kts 309°
2026-05-05 21:15 33.19265 66.85020 34041 ft 441 kts 309°
2026-05-05 21:16 33.23175 66.79355 34030 ft 442 kts 308°
2026-05-05 21:16 33.26420 66.74645 34038 ft 442 kts 309°
2026-05-05 21:17 33.30964 66.68039 34026 ft 442 kts 308°
2026-05-05 21:17 33.34876 66.62343 34009 ft 443 kts 309°
2026-05-05 21:18 33.38154 66.57562 34008 ft 444 kts 308°
2026-05-05 21:18 33.42037 66.51892 34006 ft 443 kts 309°
2026-05-05 21:19 33.45942 66.46183 34004 ft 443 kts 308°
2026-05-05 21:19 33.49834 66.40467 34007 ft 443 kts 308°
2026-05-05 21:20 33.53720 66.34740 33985 ft 443 kts 308°
2026-05-05 21:20 33.57601 66.29010 34010 ft 442 kts 308°
2026-05-05 21:21 33.61481 66.23273 34006 ft 442 kts 308°
2026-05-05 21:21 33.65324 66.17585 34011 ft 442 kts 308°
2026-05-05 21:22 33.69197 66.11842 34021 ft 442 kts 308°
2026-05-05 21:22 33.73061 66.06105 34037 ft 441 kts 308°
2026-05-05 21:23 33.76919 66.00367 34048 ft 441 kts 308°
2026-05-05 21:23 33.80698 65.94736 34046 ft 441 kts 308°
2026-05-05 21:24 33.84562 65.88971 34055 ft 442 kts 308°
2026-05-05 21:24 33.88422 65.83202 34056 ft 442 kts 308°
2026-05-05 21:25 33.92249 65.77472 34038 ft 441 kts 308°
2026-05-05 21:25 33.96085 65.71722 34073 ft 440 kts 308°
2026-05-05 21:26 33.99915 65.65970 34072 ft 439 kts 308°
2026-05-05 21:26 34.03714 65.60255 34071 ft 440 kts 308°
2026-05-05 21:27 34.07541 65.54490 34075 ft 439 kts 308°
2026-05-05 21:27 34.11363 65.48732 34096 ft 440 kts 308°
2026-05-05 21:28 34.15192 65.42957 34093 ft 441 kts 308°
2026-05-05 21:28 34.19027 65.37162 34105 ft 442 kts 308°
2026-05-05 21:29 34.22866 65.31352 34097 ft 443 kts 308°
2026-05-05 21:29 34.26679 65.25570 34098 ft 442 kts 308°
2026-05-05 21:30 34.30516 65.19743 34023 ft 439 kts 308°
2026-05-05 21:30 34.34270 65.14033 34101 ft 436 kts 307°
2026-05-05 21:31 34.38083 65.08222 34109 ft 443 kts 307°
2026-05-05 21:31 34.41916 65.02373 34112 ft 443 kts 307°
2026-05-05 21:32 34.45679 64.96619 34091 ft 442 kts 307°
2026-05-05 21:32 34.49492 64.90783 34100 ft 441 kts 307°
2026-05-05 21:33 34.53299 64.84941 34120 ft 441 kts 307°
2026-05-05 21:33 34.57099 64.79094 34113 ft 441 kts 307°
2026-05-05 21:34 34.60893 64.73247 34105 ft 441 kts 307°
2026-05-05 21:34 34.64690 64.67383 34106 ft 441 kts 307°
2026-05-05 21:35 34.68454 64.61563 34097 ft 441 kts 307°
2026-05-05 21:35 34.72246 64.55690 34094 ft 441 kts 307°
2026-05-05 21:36 34.76029 64.49821 34089 ft 441 kts 307°
2026-05-05 21:36 34.79811 64.43944 34080 ft 440 kts 307°
2026-05-05 21:37 34.83586 64.38068 34082 ft 440 kts 307°
2026-05-05 21:37 34.87359 64.32186 34081 ft 440 kts 307°
2026-05-05 21:38 34.89242 64.29246 34459 ft 441 kts 307°
2026-05-05 21:38 34.91127 64.26300 34029 ft 435 kts 307°
2026-05-05 21:38 34.94818 64.20528 34059 ft 434 kts 307°
2026-05-05 21:39 34.98536 64.14699 34064 ft 441 kts 307°
2026-05-05 21:39 35.02296 64.08798 34058 ft 441 kts 307°
2026-05-05 21:40 35.06059 64.02882 34049 ft 441 kts 307°
2026-05-05 21:40 35.09764 63.97048 34055 ft 441 kts 307°
2026-05-05 21:41 35.13518 63.91125 34047 ft 441 kts 307°
2026-05-05 21:41 35.17267 63.85200 34042 ft 440 kts 307°
2026-05-05 21:42 35.20986 63.79313 34036 ft 440 kts 307°
2026-05-05 21:42 35.24732 63.73372 34010 ft 440 kts 307°
2026-05-05 21:43 35.28466 63.67443 34007 ft 440 kts 307°
2026-05-05 21:43 35.32200 63.61512 34016 ft 439 kts 307°
2026-05-05 21:44 35.35939 63.55585 34005 ft 440 kts 307°
2026-05-05 21:44 35.39681 63.49643 34011 ft 440 kts 307°
2026-05-05 21:45 35.43396 63.43731 33994 ft 440 kts 307°
2026-05-05 21:45 35.47132 63.37772 33989 ft 440 kts 306°
2026-05-05 21:46 35.50867 63.31807 33978 ft 441 kts 306°
2026-05-05 21:46 35.54600 63.25833 33988 ft 441 kts 306°
2026-05-05 21:47 35.56465 63.22845 34452 ft 441 kts 306°
2026-05-05 21:47 35.58325 63.19863 33958 ft 433 kts 306°
2026-05-05 21:47 35.61941 63.14009 33978 ft 434 kts 306°
2026-05-05 21:48 35.65622 63.08001 33983 ft 445 kts 306°
2026-05-05 21:48 35.69335 63.01933 33968 ft 443 kts 306°
2026-05-05 21:49 35.72976 62.95980 33971 ft 441 kts 306°
2026-05-05 21:49 35.76635 62.89990 33962 ft 440 kts 306°
2026-05-05 21:50 35.80310 62.83962 33954 ft 439 kts 306°
2026-05-05 21:50 35.83978 62.77934 33969 ft 439 kts 306°
2026-05-05 21:51 35.87648 62.71894 33950 ft 440 kts 306°
2026-05-05 21:51 35.91323 62.65833 33954 ft 442 kts 306°
2026-05-05 21:52 35.96849 62.56702 33948 ft 443 kts 306°
2026-05-05 21:53 36.00528 62.50608 33935 ft 443 kts 305°
2026-05-05 21:53 36.04214 62.44492 33941 ft 444 kts 305°
2026-05-05 21:54 36.07899 62.38368 33958 ft 444 kts 305°
2026-05-05 21:54 36.11562 62.32269 33933 ft 444 kts 305°
2026-05-05 21:55 36.15236 62.26140 33943 ft 444 kts 305°
2026-05-05 21:55 36.18923 62.19980 33942 ft 444 kts 305°
2026-05-05 21:56 36.22597 62.13829 33935 ft 445 kts 305°
2026-05-05 21:56 36.26279 62.07653 33935 ft 445 kts 305°
2026-05-05 21:57 36.29963 62.01464 33936 ft 446 kts 305°
2026-05-05 21:57 36.33560 61.95410 33934 ft 446 kts 305°
2026-05-05 21:57 36.35398 61.92313 33765 ft 446 kts 305°
2026-05-05 21:58 36.37246 61.89195 33829 ft 452 kts 305°
2026-05-05 21:58 36.41027 61.82805 33923 ft 465 kts 305°
2026-05-05 21:59 36.44884 61.76277 33921 ft 469 kts 304°
2026-05-05 21:59 36.48725 61.69768 33920 ft 464 kts 304°
2026-05-05 22:00 36.52548 61.63272 33919 ft 467 kts 304°
2026-05-05 22:00 36.56394 61.56723 33913 ft 470 kts 304°
2026-05-05 22:01 36.60260 61.50129 33911 ft 471 kts 304°
2026-05-05 22:01 36.64105 61.43534 33903 ft 470 kts 304°
2026-05-05 22:02 36.67881 61.36899 33903 ft 469 kts 304°
2026-05-05 22:02 36.71638 61.30260 33894 ft 468 kts 303°
2026-05-05 22:03 36.74757 61.24750 33899 ft 468 kts 303°
2026-05-05 22:03 36.78511 61.18119 33906 ft 468 kts 303°
2026-05-05 22:04 36.82262 61.11483 33886 ft 468 kts 303°
2026-05-05 22:04 36.86019 61.04822 33883 ft 469 kts 303°
2026-05-05 22:05 36.89712 60.98260 33895 ft 469 kts 303°
2026-05-05 22:05 36.93432 60.91637 33887 ft 469 kts 303°
2026-05-05 22:06 36.97183 60.84950 33894 ft 469 kts 303°
2026-05-05 22:06 37.01122 60.78448 33883 ft 469 kts 306°
2026-05-05 22:07 37.05168 60.72039 33869 ft 469 kts 306°
2026-05-05 22:07 37.09210 60.65618 33882 ft 469 kts 306°
2026-05-05 22:08 37.13226 60.59186 33872 ft 468 kts 306°
2026-05-05 22:08 37.17197 60.52797 33872 ft 467 kts 306°
2026-05-05 22:09 37.21183 60.46367 33867 ft 466 kts 306°
2026-05-05 22:09 37.25160 60.39939 33867 ft 467 kts 306°
2026-05-05 22:10 37.29146 60.33488 33867 ft 468 kts 306°
2026-05-05 22:10 37.33136 60.27017 33863 ft 468 kts 306°
2026-05-05 22:11 37.37125 60.20537 33870 ft 469 kts 306°
2026-05-05 22:11 37.41099 60.14068 33854 ft 469 kts 305°
2026-05-05 22:12 37.45087 60.07562 33856 ft 470 kts 305°
2026-05-05 22:12 37.49076 60.01043 33854 ft 470 kts 305°
2026-05-05 22:13 37.52994 59.94627 33861 ft 470 kts 305°
2026-05-05 22:13 37.56969 59.88105 33849 ft 469 kts 305°
2026-05-05 22:14 37.60935 59.81585 33845 ft 467 kts 305°
2026-05-05 22:14 37.64882 59.75083 33847 ft 466 kts 304°
2026-05-05 22:15 37.68811 59.68598 33846 ft 465 kts 304°
2026-05-05 22:15 37.72728 59.62120 33839 ft 463 kts 304°
2026-05-05 22:16 37.76634 59.55647 33844 ft 462 kts 304°
2026-05-05 22:16 37.80520 59.49195 33846 ft 461 kts 304°
2026-05-05 22:17 37.84371 59.42788 33831 ft 460 kts 304°
2026-05-05 22:17 37.88232 59.36353 33829 ft 459 kts 304°
2026-05-05 22:18 37.91721 59.29635 33841 ft 455 kts 299°
2026-05-05 22:18 37.95005 59.22772 33833 ft 455 kts 298°
2026-05-05 22:19 37.98288 59.15915 33821 ft 455 kts 299°
2026-05-05 22:19 38.01569 59.09087 33816 ft 454 kts 299°
2026-05-05 22:20 38.04857 59.02247 33883 ft 453 kts 298°
2026-05-05 22:20 38.08072 58.95548 33804 ft 450 kts 298°
2026-05-05 22:21 38.11308 58.88789 33790 ft 445 kts 298°
2026-05-05 22:21 38.14509 58.82085 33793 ft 442 kts 298°
2026-05-05 22:22 38.17670 58.75451 33799 ft 441 kts 298°
2026-05-05 22:22 38.20852 58.68760 33803 ft 442 kts 298°
2026-05-05 22:23 38.24035 58.62053 33804 ft 443 kts 298°
2026-05-05 22:23 38.27224 58.55320 33802 ft 444 kts 298°
2026-05-05 22:24 38.30414 58.48570 33804 ft 445 kts 298°
2026-05-05 22:24 38.33603 58.41809 33804 ft 446 kts 297°
2026-05-05 22:25 38.36775 58.35070 33808 ft 446 kts 297°
2026-05-05 22:25 38.39936 58.28274 33810 ft 445 kts 295°
2026-05-05 22:26 38.42559 58.21146 33814 ft 443 kts 291°
2026-05-05 22:26 38.45072 58.13979 33820 ft 443 kts 291°
2026-05-05 22:27 38.47598 58.06812 33811 ft 443 kts 291°
2026-05-05 22:27 38.50089 57.99760 33814 ft 442 kts 291°
2026-05-05 22:28 38.52615 57.92601 33823 ft 442 kts 291°
2026-05-05 22:28 38.55137 57.85432 33818 ft 443 kts 291°
2026-05-05 22:29 38.57641 57.78293 33823 ft 443 kts 291°
2026-05-05 22:29 38.60160 57.71098 33824 ft 444 kts 291°
2026-05-05 22:30 38.62577 57.63839 33824 ft 442 kts 288°
2026-05-05 22:30 38.64694 57.56451 33839 ft 443 kts 287°
2026-05-05 22:31 38.66787 57.49031 33829 ft 443 kts 287°
2026-05-05 22:31 38.68885 57.41626 33827 ft 443 kts 287°
2026-05-05 22:32 38.70988 57.34216 33834 ft 443 kts 287°
2026-05-05 22:32 38.73087 57.26810 33851 ft 443 kts 287°
2026-05-05 22:33 38.75187 57.19379 33826 ft 443 kts 287°
2026-05-05 22:33 38.77277 57.11959 33833 ft 443 kts 287°
2026-05-05 22:34 38.79364 57.04530 33831 ft 443 kts 287°
2026-05-05 22:34 38.81416 56.97206 33841 ft 443 kts 287°
2026-05-05 22:35 38.83494 56.89767 33847 ft 443 kts 286°
2026-05-05 22:35 38.85570 56.82314 33845 ft 443 kts 286°
2026-05-05 22:36 38.87625 56.74916 33845 ft 443 kts 286°
2026-05-05 22:36 38.89691 56.67455 33846 ft 443 kts 286°
2026-05-05 22:37 38.91750 56.60000 33864 ft 443 kts 286°
2026-05-05 22:37 38.93803 56.52543 33852 ft 443 kts 286°
2026-05-05 22:38 38.95851 56.45084 33852 ft 443 kts 286°
2026-05-05 22:38 38.97893 56.37622 33851 ft 442 kts 285°
2026-05-05 22:39 38.99931 56.30161 33836 ft 442 kts 285°
2026-05-05 22:39 39.01770 56.22646 33832 ft 441 kts 282°
2026-05-05 22:40 39.03438 56.15107 33826 ft 441 kts 282°
2026-05-05 22:40 39.05131 56.07521 33834 ft 441 kts 282°
2026-05-05 22:41 39.06843 55.99961 33832 ft 441 kts 283°
2026-05-05 22:41 39.08542 55.92474 33845 ft 442 kts 282°
2026-05-05 22:42 39.10260 55.84879 33832 ft 441 kts 282°
2026-05-05 22:42 39.11970 55.77288 33831 ft 441 kts 282°
2026-05-05 22:43 39.13677 55.69680 33840 ft 442 kts 282°
2026-05-05 22:43 39.15382 55.62064 33844 ft 443 kts 282°
2026-05-05 22:44 39.17076 55.54467 33840 ft 445 kts 282°
2026-05-05 22:44 39.18782 55.46794 33835 ft 446 kts 282°
2026-05-05 22:45 39.20488 55.39094 33840 ft 447 kts 282°
2026-05-05 22:45 39.22192 55.31376 33836 ft 448 kts 282°
2026-05-05 22:46 39.23894 55.23644 33838 ft 448 kts 282°
2026-05-05 22:46 39.25590 55.15913 33837 ft 448 kts 282°
2026-05-05 22:47 39.27280 55.08180 33837 ft 447 kts 282°
2026-05-05 22:47 39.28960 55.00461 33835 ft 446 kts 282°
2026-05-05 22:48 39.30605 54.92885 33861 ft 445 kts 282°
2026-05-05 22:48 39.32257 54.85246 33837 ft 442 kts 281°
2026-05-05 22:49 39.33902 54.77614 33822 ft 440 kts 281°
2026-05-05 22:49 39.35269 54.71248 33822 ft 438 kts 281°
2026-05-05 22:50 39.36883 54.63710 33831 ft 437 kts 281°
2026-05-05 22:50 39.38500 54.56125 33832 ft 437 kts 281°
2026-05-05 22:51 39.40112 54.48544 33844 ft 438 kts 281°
2026-05-05 22:51 39.41722 54.40947 33840 ft 438 kts 281°
2026-05-05 22:52 39.43327 54.33342 33821 ft 438 kts 281°
2026-05-05 22:52 39.44928 54.25732 33844 ft 438 kts 281°
2026-05-05 22:53 39.46523 54.18121 33825 ft 438 kts 280°
2026-05-05 22:53 39.48116 54.10502 33828 ft 438 kts 280°
2026-05-05 22:54 39.50187 54.03079 33834 ft 445 kts 289°
2026-05-05 22:54 39.53127 53.96115 33846 ft 452 kts 297°
2026-05-05 22:55 39.56730 53.89436 33832 ft 453 kts 299°
2026-05-05 22:55 39.60393 53.82783 33822 ft 453 kts 299°
2026-05-05 22:56 39.64009 53.76144 33831 ft 452 kts 298°
2026-05-05 22:56 39.67615 53.69461 33841 ft 451 kts 298°
2026-05-05 22:57 39.71206 53.62777 33833 ft 451 kts 298°
2026-05-05 22:57 39.74788 53.56097 33837 ft 450 kts 298°
2026-05-05 22:58 39.78363 53.49419 33846 ft 450 kts 298°
2026-05-05 22:58 39.81929 53.42743 33838 ft 449 kts 298°
2026-05-05 22:59 39.85493 53.36056 33847 ft 449 kts 298°
2026-05-05 22:59 39.89027 53.29412 33866 ft 449 kts 298°
2026-05-05 23:00 39.94358 53.19362 33857 ft 450 kts 298°
2026-05-05 23:00 39.97909 53.12650 33860 ft 450 kts 298°
2026-05-05 23:01 40.01457 53.05929 33867 ft 450 kts 298°
2026-05-05 23:01 40.04954 52.99296 33859 ft 451 kts 298°
2026-05-05 23:02 40.08515 52.92559 33863 ft 451 kts 298°
2026-05-05 23:02 40.12076 52.85815 33874 ft 450 kts 298°
2026-05-05 23:03 40.15607 52.79109 33870 ft 450 kts 298°
2026-05-05 23:03 40.19159 52.72342 33979 ft 453 kts 298°
2026-05-05 23:04 40.20940 52.68946 34352 ft 452 kts 298°
2026-05-05 23:04 40.22714 52.65564 34815 ft 450 kts 298°
2026-05-05 23:04 40.24386 52.62126 35220 ft 443 kts 292°
2026-05-05 23:04 40.25744 52.58536 35606 ft 438 kts 288°
2026-05-05 23:05 40.26898 52.54850 35900 ft 437 kts 285°
2026-05-05 23:05 40.27826 52.51058 35870 ft 437 kts 280°
2026-05-05 23:05 40.29294 52.43367 35874 ft 433 kts 279°
2026-05-05 23:06 40.30716 52.35728 35878 ft 431 kts 279°
2026-05-05 23:06 40.32150 52.28101 35886 ft 431 kts 279°
2026-05-05 23:07 40.33591 52.20478 35881 ft 432 kts 279°
2026-05-05 23:07 40.35036 52.12822 35879 ft 433 kts 279°
2026-05-05 23:08 40.36480 52.05144 35887 ft 434 kts 279°
2026-05-05 23:08 40.37898 51.97574 35886 ft 435 kts 279°
2026-05-05 23:09 40.39328 51.89911 35885 ft 435 kts 279°
2026-05-05 23:09 40.40762 51.82193 35885 ft 436 kts 279°
2026-05-05 23:10 40.42194 51.74461 35894 ft 436 kts 278°
2026-05-05 23:10 40.43622 51.66709 35884 ft 436 kts 278°
2026-05-05 23:11 40.45044 51.58970 35891 ft 436 kts 278°
2026-05-05 23:11 40.46456 51.51218 35882 ft 435 kts 277°
2026-05-05 23:12 40.47351 51.43420 35893 ft 431 kts 272°
2026-05-05 23:12 40.48051 51.35601 35888 ft 431 kts 272°
2026-05-05 23:13 40.48757 51.27845 35890 ft 431 kts 272°
2026-05-05 23:13 40.49475 51.20028 35899 ft 431 kts 272°
2026-05-05 23:14 40.50190 51.12197 35896 ft 431 kts 272°
2026-05-05 23:14 40.50900 51.04365 35890 ft 431 kts 272°
2026-05-05 23:15 40.51593 50.96665 35886 ft 431 kts 272°
2026-05-05 23:15 40.52397 50.88840 35891 ft 433 kts 274°
2026-05-05 23:16 40.53431 50.81045 35903 ft 433 kts 275°
2026-05-05 23:16 40.54481 50.73244 35885 ft 433 kts 274°
2026-05-05 23:17 40.55515 50.65428 35879 ft 433 kts 274°
2026-05-05 23:17 40.56534 50.57619 35876 ft 433 kts 274°
2026-05-05 23:18 40.57546 50.49803 35871 ft 433 kts 274°
2026-05-05 23:18 40.58546 50.42039 35883 ft 433 kts 274°
2026-05-05 23:19 40.59549 50.34208 35866 ft 434 kts 274°
2026-05-05 23:19 40.60547 50.26373 35864 ft 434 kts 274°
2026-05-05 23:20 40.61541 50.18525 35863 ft 434 kts 274°
2026-05-05 23:20 40.62531 50.10670 35869 ft 435 kts 274°
2026-05-05 23:21 40.63516 50.02802 35877 ft 436 kts 274°
2026-05-05 23:21 40.64484 49.95028 35869 ft 437 kts 274°
2026-05-05 23:22 40.65458 49.87164 35870 ft 438 kts 274°
2026-05-05 23:22 40.66434 49.79236 35874 ft 439 kts 274°
2026-05-05 23:23 40.67406 49.71292 35877 ft 439 kts 274°
2026-05-05 23:23 40.68374 49.63343 35925 ft 440 kts 273°
2026-05-05 23:24 40.69338 49.55376 35892 ft 440 kts 273°
2026-05-05 23:24 40.70294 49.47399 35882 ft 440 kts 273°
2026-05-05 23:25 40.71226 49.39441 35879 ft 439 kts 272°
2026-05-05 23:25 40.72152 49.31514 35890 ft 437 kts 272°
2026-05-05 23:26 40.72617 49.23589 35903 ft 431 kts 264°
2026-05-05 23:26 40.72146 49.15811 35889 ft 427 kts 257°
2026-05-05 23:27 40.71279 49.08058 35870 ft 428 kts 257°
2026-05-05 23:27 40.70405 49.00303 35868 ft 427 kts 257°
2026-05-05 23:28 40.69559 48.92708 35857 ft 426 kts 257°
2026-05-05 23:28 40.68704 48.84990 35840 ft 425 kts 257°
2026-05-05 23:29 40.67846 48.77291 35869 ft 424 kts 256°
2026-05-05 23:29 40.66992 48.69661 35848 ft 423 kts 256°
2026-05-05 23:30 40.66269 48.63249 35837 ft 421 kts 256°
2026-05-05 23:30 40.65264 48.54391 35839 ft 421 kts 256°
2026-05-05 23:31 40.64396 48.46786 35838 ft 419 kts 256°
2026-05-05 23:31 40.63524 48.39195 35847 ft 419 kts 256°
2026-05-05 23:32 40.62648 48.31611 35846 ft 419 kts 256°
2026-05-05 23:32 40.61767 48.24020 35852 ft 420 kts 256°
2026-05-05 23:33 40.60879 48.16421 35846 ft 420 kts 256°
2026-05-05 23:33 40.59970 48.08821 35859 ft 420 kts 255°
2026-05-05 23:34 40.59058 48.01269 35856 ft 422 kts 255°
2026-05-05 23:34 40.58408 47.93686 35861 ft 429 kts 262°
2026-05-05 23:35 40.58521 47.87105 35862 ft 436 kts 266°
2026-05-05 23:35 40.58818 47.79128 35858 ft 437 kts 265°
2026-05-05 23:36 40.59096 47.71140 35861 ft 437 kts 265°
2026-05-05 23:36 40.59357 47.63148 35857 ft 437 kts 265°
2026-05-05 23:37 40.59606 47.55157 35906 ft 436 kts 266°
2026-05-05 23:37 40.59854 47.47196 35869 ft 434 kts 265°
2026-05-05 23:38 40.60094 47.39276 35855 ft 433 kts 265°
2026-05-05 23:38 40.60326 47.31371 35856 ft 432 kts 265°
2026-05-05 23:39 40.60555 47.23455 35859 ft 432 kts 265°
2026-05-05 23:39 40.60942 47.15527 35858 ft 438 kts 270°
2026-05-05 23:40 40.61766 47.07640 35893 ft 436 kts 270°
2026-05-05 23:40 40.62593 46.99807 35871 ft 440 kts 270°
2026-05-05 23:41 40.63414 46.91829 35865 ft 443 kts 270°
2026-05-05 23:41 40.64230 46.83787 35865 ft 443 kts 270°
2026-05-05 23:42 40.65039 46.75739 35870 ft 443 kts 270°
2026-05-05 23:42 40.65841 46.67702 35888 ft 443 kts 270°
2026-05-05 23:43 40.66637 46.59662 35910 ft 443 kts 270°
2026-05-05 23:43 40.67429 46.51587 35929 ft 444 kts 270°
2026-05-05 23:44 40.68213 46.43546 35934 ft 446 kts 270°
2026-05-05 23:44 40.69000 46.35424 35943 ft 447 kts 270°
2026-05-05 23:45 40.69782 46.27286 35945 ft 448 kts 270°
2026-05-05 23:45 40.70560 46.19123 35936 ft 449 kts 270°
2026-05-05 23:46 40.71331 46.10986 35920 ft 450 kts 270°
2026-05-05 23:46 40.72103 46.02795 35911 ft 450 kts 270°
2026-05-05 23:47 40.72852 45.94731 35894 ft 452 kts 270°
2026-05-05 23:47 40.73613 45.86499 35878 ft 452 kts 270°
2026-05-05 23:48 40.74371 45.78243 35881 ft 454 kts 270°
2026-05-05 23:48 40.75124 45.69981 35878 ft 454 kts 270°
2026-05-05 23:49 40.75871 45.61707 35881 ft 454 kts 270°
2026-05-05 23:49 40.76608 45.53493 35870 ft 454 kts 270°
2026-05-05 23:50 40.77184 45.45178 35913 ft 451 kts 268°
2026-05-05 23:50 40.77543 45.36942 35881 ft 452 kts 268°
2026-05-05 23:51 40.77893 45.28649 35869 ft 453 kts 268°
2026-05-05 23:51 40.78254 45.20350 35875 ft 453 kts 268°
2026-05-05 23:52 40.78615 45.12037 35656 ft 451 kts 273°
2026-05-05 23:52 40.78796 45.07918 36141 ft 448 kts 268°
2026-05-05 23:52 40.78977 45.03814 36013 ft 449 kts 268°
2026-05-05 23:53 40.79321 44.95660 35958 ft 458 kts 268°
2026-05-05 23:53 40.79667 44.87258 35883 ft 457 kts 268°
2026-05-05 23:54 40.80010 44.78956 35892 ft 453 kts 268°
2026-05-05 23:54 40.80345 44.70656 35882 ft 452 kts 268°
2026-05-05 23:55 40.80672 44.62381 35890 ft 451 kts 268°
2026-05-05 23:55 40.80995 44.54069 35906 ft 458 kts 268°
2026-05-05 23:56 40.81313 44.45607 35895 ft 463 kts 268°
2026-05-05 23:56 40.81630 44.37123 35923 ft 461 kts 268°
2026-05-05 23:57 40.81940 44.28736 35918 ft 461 kts 268°
2026-05-05 23:57 40.82242 44.20293 35936 ft 460 kts 268°
2026-05-05 23:58 40.82538 44.11844 35940 ft 461 kts 268°
2026-05-05 23:58 40.82830 44.03384 35954 ft 462 kts 268°
2026-05-05 23:59 40.83111 43.95035 35955 ft 463 kts 268°
2026-05-05 23:59 40.83393 43.86520 35954 ft 465 kts 268°
2026-05-06 00:00 40.83676 43.77975 35962 ft 467 kts 269°
2026-05-06 00:00 40.83970 43.69389 35961 ft 473 kts 269°
2026-05-06 00:01 40.84371 43.60665 35962 ft 482 kts 270°
2026-05-06 00:01 40.84896 43.51852 35945 ft 481 kts 271°
2026-05-06 00:02 40.85412 43.43050 35951 ft 479 kts 270°
2026-05-06 00:02 40.85898 43.34270 35938 ft 479 kts 270°
2026-05-06 00:03 40.86367 43.25512 35944 ft 478 kts 270°
2026-05-06 00:03 40.86827 43.16769 35946 ft 477 kts 270°
2026-05-06 00:04 40.87280 43.08029 35949 ft 476 kts 270°
2026-05-06 00:04 40.87717 42.99492 35934 ft 476 kts 270°
2026-05-06 00:05 40.88376 42.86383 35946 ft 477 kts 270°
2026-05-06 00:06 40.88809 42.77618 35950 ft 478 kts 270°
2026-05-06 00:06 40.89235 42.68859 35946 ft 478 kts 270°
2026-05-06 00:07 40.89655 42.60082 35945 ft 478 kts 270°
2026-05-06 00:07 40.90068 42.51296 35938 ft 479 kts 270°
2026-05-06 00:08 40.90472 42.42567 35942 ft 479 kts 270°
2026-05-06 00:08 40.90873 42.33750 35935 ft 480 kts 270°
2026-05-06 00:09 40.91269 42.24930 35936 ft 480 kts 270°
2026-05-06 00:09 40.91657 42.16108 35927 ft 481 kts 270°
2026-05-06 00:10 40.92039 42.07276 35933 ft 480 kts 270°
2026-05-06 00:10 40.92407 41.98612 35922 ft 481 kts 270°
2026-05-06 00:11 40.92775 41.89781 35905 ft 481 kts 270°
2026-05-06 00:11 40.93136 41.80957 35914 ft 481 kts 270°
2026-05-06 00:12 40.93489 41.72185 35907 ft 481 kts 270°
2026-05-06 00:12 40.93837 41.63355 35908 ft 480 kts 270°
2026-05-06 00:13 40.94178 41.54527 35906 ft 481 kts 270°
2026-05-06 00:13 40.94512 41.45697 35891 ft 480 kts 270°
2026-05-06 00:14 40.94839 41.36864 35902 ft 480 kts 270°
2026-05-06 00:14 40.95161 41.28052 35899 ft 480 kts 270°
2026-05-06 00:15 40.95476 41.19227 35925 ft 481 kts 270°
2026-05-06 00:15 40.95782 41.10410 35922 ft 479 kts 269°
2026-05-06 00:16 40.96082 41.01614 35915 ft 478 kts 269°
2026-05-06 00:16 40.96370 40.92990 35906 ft 476 kts 269°
2026-05-06 00:17 40.96653 40.84254 35920 ft 475 kts 269°
2026-05-06 00:17 40.96924 40.75568 35912 ft 476 kts 269°
2026-05-06 00:18 40.97190 40.66816 35924 ft 477 kts 269°
2026-05-06 00:18 40.97452 40.58025 35915 ft 479 kts 269°
2026-05-06 00:19 40.97709 40.49192 35921 ft 480 kts 269°
2026-05-06 00:19 40.97959 40.40361 35933 ft 481 kts 269°
2026-05-06 00:20 40.98203 40.31509 35925 ft 482 kts 269°
2026-05-06 00:20 40.98442 40.22649 35930 ft 482 kts 269°
2026-05-06 00:21 40.98670 40.13850 35932 ft 481 kts 269°
2026-05-06 00:21 40.98894 40.04992 35939 ft 481 kts 269°
2026-05-06 00:22 40.99108 39.96281 35939 ft 481 kts 269°
2026-05-06 00:22 40.99320 39.87427 35940 ft 482 kts 269°
2026-05-06 00:23 40.99502 39.80043 35940 ft 482 kts 271°
2026-05-06 00:23 41.00237 39.71222 35941 ft 484 kts 275°
2026-05-06 00:24 41.01131 39.62393 35941 ft 484 kts 275°
2026-05-06 00:24 41.01999 39.53534 35964 ft 485 kts 275°
2026-05-06 00:25 41.02838 39.44654 35987 ft 486 kts 275°
2026-05-06 00:25 41.03669 39.35747 36004 ft 487 kts 275°
2026-05-06 00:26 41.04495 39.26836 36008 ft 488 kts 275°
2026-05-06 00:26 41.05316 39.17911 36008 ft 488 kts 275°
2026-05-06 00:27 41.06135 39.08994 36003 ft 488 kts 275°
2026-05-06 00:27 41.06962 39.00135 36005 ft 487 kts 275°
2026-05-06 00:28 41.07773 38.91379 36005 ft 487 kts 275°
2026-05-06 00:28 41.08589 38.82464 36010 ft 487 kts 275°
2026-05-06 00:29 41.09400 38.73542 36003 ft 487 kts 275°
2026-05-06 00:29 41.10179 38.64609 36000 ft 487 kts 274°
2026-05-06 00:30 41.10910 38.55723 36000 ft 487 kts 275°
2026-05-06 00:30 41.11665 38.46786 36000 ft 488 kts 275°
2026-05-06 00:31 41.12420 38.37824 35980 ft 489 kts 275°
2026-05-06 00:31 41.13165 38.28853 35970 ft 490 kts 275°
2026-05-06 00:32 41.13900 38.19851 35961 ft 490 kts 275°
2026-05-06 00:32 41.14622 38.10858 35963 ft 491 kts 275°
2026-05-06 00:33 41.15342 38.01827 35962 ft 492 kts 275°
2026-05-06 00:33 41.16045 37.92937 35968 ft 492 kts 275°
2026-05-06 00:34 41.16768 37.83955 35975 ft 493 kts 275°
2026-05-06 00:34 41.17566 37.74912 35994 ft 493 kts 276°
2026-05-06 00:35 41.18356 37.65856 35993 ft 494 kts 276°
2026-05-06 00:35 41.19026 37.56788 35993 ft 494 kts 272°
2026-05-06 00:36 41.19516 37.47690 35994 ft 494 kts 275°
2026-05-06 00:36 41.20215 37.38594 35995 ft 494 kts 275°
2026-05-06 00:37 41.20901 37.29497 35985 ft 495 kts 275°
2026-05-06 00:37 41.21557 37.20393 35991 ft 495 kts 275°
2026-05-06 00:38 41.22265 37.11359 35984 ft 495 kts 275°
2026-05-06 00:38 41.22995 37.02244 35982 ft 495 kts 275°
2026-05-06 00:39 41.23696 36.93307 35969 ft 496 kts 275°
2026-05-06 00:39 41.24398 36.84179 35960 ft 496 kts 275°
2026-05-06 00:40 41.25092 36.75047 35951 ft 497 kts 275°
2026-05-06 00:40 41.25781 36.65916 35941 ft 497 kts 275°
2026-05-06 00:41 41.26537 36.56795 35939 ft 497 kts 279°
2026-05-06 00:41 41.28260 36.47918 35973 ft 496 kts 289°
2026-05-06 00:42 41.30523 36.39242 35976 ft 497 kts 289°
2026-05-06 00:42 41.32789 36.30538 35966 ft 497 kts 289°
2026-05-06 00:43 41.35013 36.21819 35972 ft 497 kts 289°
2026-05-06 00:43 41.37199 36.13140 35969 ft 498 kts 289°
2026-05-06 00:44 41.39391 36.04398 35963 ft 498 kts 289°
2026-05-06 00:44 41.41541 35.95796 35923 ft 498 kts 289°
2026-05-06 00:45 41.43725 35.87035 35925 ft 498 kts 289°
2026-05-06 00:45 41.45904 35.78263 35927 ft 498 kts 289°
2026-05-06 00:46 41.48076 35.69485 35926 ft 498 kts 289°
2026-05-06 00:46 41.50239 35.60708 35925 ft 498 kts 289°
2026-05-06 00:47 41.52384 35.51971 35931 ft 498 kts 289°
2026-05-06 00:47 41.54536 35.43175 35930 ft 499 kts 289°
2026-05-06 00:48 41.56682 35.34369 35933 ft 498 kts 289°
2026-05-06 00:48 41.58821 35.25560 35937 ft 498 kts 289°
2026-05-06 00:49 41.60950 35.16757 35937 ft 498 kts 289°
2026-05-06 00:49 41.63072 35.07953 35929 ft 497 kts 289°
2026-05-06 00:50 41.65149 34.99293 35941 ft 497 kts 289°
2026-05-06 00:50 41.67253 34.90495 35946 ft 497 kts 289°
2026-05-06 00:51 41.69352 34.81688 35953 ft 497 kts 289°
2026-05-06 00:51 41.71428 34.72935 35956 ft 497 kts 289°
2026-05-06 00:52 41.73516 34.64107 35958 ft 497 kts 289°
2026-05-06 00:52 41.75596 34.55273 35958 ft 497 kts 289°
2026-05-06 00:53 41.77668 34.46424 35964 ft 497 kts 289°
2026-05-06 00:53 41.79731 34.37583 35959 ft 498 kts 290°
2026-05-06 00:54 41.81791 34.28723 35965 ft 498 kts 290°
2026-05-06 00:54 41.83849 34.19834 35977 ft 499 kts 289°
2026-05-06 00:55 41.85886 34.11000 35963 ft 499 kts 290°
2026-05-06 00:55 41.87933 34.02091 35975 ft 499 kts 290°
2026-05-06 00:56 41.89940 33.93317 35978 ft 500 kts 290°
2026-05-06 00:56 41.91973 33.84393 35979 ft 500 kts 290°
2026-05-06 00:57 41.94004 33.75448 35977 ft 500 kts 290°
2026-05-06 00:57 41.95982 33.66495 35981 ft 500 kts 288°
2026-05-06 00:58 41.97705 33.57486 35983 ft 501 kts 287°
2026-05-06 00:58 41.99396 33.48401 35960 ft 501 kts 288°
2026-05-06 00:59 42.01111 33.39362 35976 ft 499 kts 288°
2026-05-06 00:59 42.02839 33.30316 35961 ft 498 kts 288°
2026-05-06 01:00 42.04552 33.21306 35958 ft 496 kts 288°
2026-05-06 01:00 42.06249 33.12323 35952 ft 494 kts 289°
2026-05-06 01:01 42.07956 33.03434 35952 ft 492 kts 289°
2026-05-06 01:01 42.09759 32.94721 35949 ft 491 kts 290°
2026-05-06 01:02 42.11601 32.85845 35948 ft 491 kts 290°
2026-05-06 01:02 42.13404 32.77007 35940 ft 490 kts 290°
2026-05-06 01:03 42.15200 32.68137 35944 ft 490 kts 290°
2026-05-06 01:03 42.16986 32.59288 35945 ft 489 kts 290°
2026-05-06 01:04 42.18762 32.50425 35945 ft 489 kts 290°
2026-05-06 01:04 42.20520 32.41610 35942 ft 489 kts 289°
2026-05-06 01:05 42.22281 32.32746 35943 ft 489 kts 289°
2026-05-06 01:05 42.24037 32.23867 35943 ft 490 kts 289°
2026-05-06 01:06 42.25790 32.14984 35934 ft 489 kts 289°
2026-05-06 01:06 42.27534 32.06110 35934 ft 489 kts 289°
2026-05-06 01:07 42.29232 31.97390 35944 ft 489 kts 289°
2026-05-06 01:07 42.30953 31.88514 35946 ft 488 kts 289°
2026-05-06 01:08 42.32666 31.79636 35944 ft 487 kts 289°
2026-05-06 01:08 42.34359 31.70836 35949 ft 486 kts 289°
2026-05-06 01:09 42.36052 31.61988 35953 ft 485 kts 289°
2026-05-06 01:09 42.37736 31.53154 35932 ft 485 kts 289°
2026-05-06 01:10 42.39410 31.44327 35946 ft 484 kts 289°
2026-05-06 01:10 42.41080 31.35484 35960 ft 485 kts 289°
2026-05-06 01:11 42.42462 31.28133 35959 ft 485 kts 289°
2026-05-06 01:11 42.44122 31.19269 35934 ft 486 kts 289°
2026-05-06 01:12 42.45775 31.10406 35956 ft 485 kts 289°
2026-05-06 01:12 42.47412 31.01599 35962 ft 485 kts 289°
2026-05-06 01:13 42.49025 30.92893 35966 ft 485 kts 289°
2026-05-06 01:13 42.50662 30.84018 35976 ft 484 kts 288°
2026-05-06 01:14 42.53096 30.70740 35978 ft 483 kts 288°
2026-05-06 01:14 42.54709 30.61893 35978 ft 483 kts 288°
2026-05-06 01:15 42.56313 30.53045 35956 ft 482 kts 288°
2026-05-06 01:15 42.57907 30.44216 35982 ft 481 kts 288°
2026-05-06 01:16 42.59490 30.35414 35986 ft 480 kts 288°
2026-05-06 01:16 42.61576 30.26904 35991 ft 472 kts 300°
2026-05-06 01:17 42.64941 30.19379 35988 ft 465 kts 311°
2026-05-06 01:17 42.68914 30.12443 35993 ft 465 kts 312°
2026-05-06 01:18 42.72902 30.05530 35998 ft 466 kts 311°
2026-05-06 01:18 42.76811 29.98668 36000 ft 466 kts 311°
2026-05-06 01:19 42.80767 29.91660 36002 ft 466 kts 310°
2026-05-06 01:19 42.84706 29.84648 36007 ft 466 kts 310°
2026-05-06 01:20 42.88646 29.77618 36007 ft 466 kts 310°
2026-05-06 01:20 42.92580 29.70585 36002 ft 466 kts 310°
2026-05-06 01:21 42.96516 29.63535 36012 ft 466 kts 310°
2026-05-06 01:21 43.00436 29.56495 36011 ft 466 kts 310°
2026-05-06 01:22 43.04331 29.49484 36019 ft 466 kts 310°
2026-05-06 01:22 43.08250 29.42414 36019 ft 467 kts 310°
2026-05-06 01:23 43.12193 29.35281 36019 ft 467 kts 310°
2026-05-06 01:23 43.16079 29.28237 36025 ft 467 kts 310°
2026-05-06 01:24 43.19993 29.21124 36013 ft 467 kts 309°
2026-05-06 01:24 43.23898 29.14011 36026 ft 467 kts 309°
2026-05-06 01:25 43.27801 29.06883 36030 ft 467 kts 309°
2026-05-06 01:25 43.31655 28.99827 36035 ft 468 kts 309°
2026-05-06 01:26 43.35544 28.92693 36025 ft 468 kts 309°
2026-05-06 01:26 43.39442 28.85522 36041 ft 469 kts 309°
2026-05-06 01:27 43.43335 28.78344 36130 ft 465 kts 309°
2026-05-06 01:27 43.47188 28.71222 36050 ft 468 kts 309°
2026-05-06 01:28 43.51093 28.63989 36042 ft 472 kts 308°
2026-05-06 01:28 43.55008 28.56716 36044 ft 473 kts 308°
2026-05-06 01:29 43.58925 28.49422 36044 ft 474 kts 308°
2026-05-06 01:29 43.62838 28.42117 36033 ft 473 kts 308°
2026-05-06 01:30 43.66740 28.34814 36041 ft 472 kts 308°
2026-05-06 01:30 43.70632 28.27512 36050 ft 471 kts 307°
2026-05-06 01:31 43.74514 28.20210 36047 ft 471 kts 307°
2026-05-06 01:31 43.78369 28.12944 36048 ft 471 kts 307°
2026-05-06 01:32 43.82240 28.05625 36051 ft 471 kts 307°
2026-05-06 01:32 43.86044 27.98418 36050 ft 471 kts 307°
2026-05-06 01:33 43.89912 27.91070 36044 ft 471 kts 307°
2026-05-06 01:33 43.93773 27.83719 36052 ft 471 kts 306°
2026-05-06 01:34 43.97623 27.76368 36052 ft 471 kts 306°
2026-05-06 01:34 44.01464 27.69015 36052 ft 470 kts 306°
2026-05-06 01:35 44.05304 27.61648 36047 ft 470 kts 306°
2026-05-06 01:35 44.09104 27.54338 36043 ft 469 kts 306°
2026-05-06 01:36 44.12916 27.46985 36044 ft 468 kts 306°
2026-05-06 01:36 44.16722 27.39628 36043 ft 467 kts 306°
2026-05-06 01:37 44.20515 27.32273 36040 ft 467 kts 307°
2026-05-06 01:37 44.24301 27.24917 36041 ft 467 kts 306°
2026-05-06 01:38 44.28078 27.17559 36044 ft 467 kts 306°
2026-05-06 01:38 44.31858 27.10176 36038 ft 467 kts 306°
2026-05-06 01:39 44.35607 27.02835 36037 ft 467 kts 307°
2026-05-06 01:39 44.39310 26.95566 36043 ft 467 kts 307°
2026-05-06 01:40 44.43078 26.88151 36042 ft 468 kts 307°
2026-05-06 01:40 44.46846 26.80716 36042 ft 468 kts 307°
2026-05-06 01:41 44.48721 26.77008 35486 ft 468 kts 307°
2026-05-06 01:41 44.50607 26.73276 36151 ft 467 kts 307°
2026-05-06 01:41 44.54373 26.65804 36046 ft 468 kts 307°
2026-05-06 01:42 44.57875 26.58841 36044 ft 467 kts 306°
2026-05-06 01:42 44.61074 26.50978 36037 ft 468 kts 297°
2026-05-06 01:43 44.63794 26.42656 36043 ft 469 kts 296°
2026-05-06 01:43 44.66503 26.34313 36041 ft 470 kts 296°
2026-05-06 01:44 44.69236 26.25972 36045 ft 471 kts 297°
2026-05-06 01:44 44.71984 26.17610 36028 ft 471 kts 297°
2026-05-06 01:45 44.74727 26.09240 36029 ft 472 kts 297°
2026-05-06 01:45 44.77467 26.00851 36035 ft 472 kts 297°
2026-05-06 01:46 44.80144 25.92631 36142 ft 470 kts 297°
2026-05-06 01:46 44.82853 25.84278 36056 ft 471 kts 297°
2026-05-06 01:47 44.85566 25.75888 36058 ft 470 kts 297°
2026-05-06 01:47 44.88270 25.67501 36053 ft 469 kts 297°
2026-05-06 01:48 44.90964 25.59118 36044 ft 469 kts 296°
2026-05-06 01:48 44.93650 25.50732 36070 ft 469 kts 296°
2026-05-06 01:49 44.96317 25.42380 36074 ft 469 kts 296°
2026-05-06 01:49 44.99004 25.33953 36081 ft 470 kts 297°
2026-05-06 01:50 45.02069 25.25866 36081 ft 468 kts 302°
2026-05-06 01:50 45.05307 25.17860 36083 ft 468 kts 302°
2026-05-06 01:51 45.08516 25.09896 36096 ft 468 kts 302°
2026-05-06 01:51 45.11715 25.01873 36100 ft 468 kts 301°
2026-05-06 01:52 45.14849 24.93957 36092 ft 468 kts 301°
2026-05-06 01:52 45.18027 24.85901 36097 ft 467 kts 301°
2026-05-06 01:53 45.21194 24.77853 36103 ft 467 kts 301°
2026-05-06 01:53 45.24351 24.69809 36103 ft 467 kts 301°
2026-05-06 01:54 45.27502 24.61756 36093 ft 466 kts 301°
2026-05-06 01:54 45.30641 24.53712 36099 ft 465 kts 301°
2026-05-06 01:55 45.33759 24.45698 36108 ft 466 kts 301°
2026-05-06 01:55 45.36889 24.37630 36106 ft 466 kts 301°
2026-05-06 01:56 45.40018 24.29541 36095 ft 466 kts 301°
2026-05-06 01:56 45.43143 24.21438 36101 ft 466 kts 301°
2026-05-06 01:57 45.46257 24.13338 36116 ft 467 kts 301°
2026-05-06 01:57 45.49374 24.05210 36112 ft 467 kts 301°
2026-05-06 01:58 45.52426 23.97231 36091 ft 464 kts 299°
2026-05-06 01:58 45.55491 23.89188 36100 ft 462 kts 299°
2026-05-06 01:59 45.58552 23.81130 36095 ft 460 kts 300°
2026-05-06 01:59 45.61593 23.73104 36104 ft 459 kts 299°
2026-05-06 02:00 45.64627 23.65076 36124 ft 458 kts 299°
2026-05-06 02:00 45.67631 23.57101 36106 ft 459 kts 299°
2026-05-06 02:01 45.70653 23.49055 36109 ft 459 kts 299°
2026-05-06 02:01 45.73674 23.40990 36106 ft 460 kts 299°
2026-05-06 02:02 45.76694 23.32903 36128 ft 460 kts 298°
2026-05-06 02:02 45.79706 23.24810 36109 ft 460 kts 298°
2026-05-06 02:03 45.82711 23.16714 36106 ft 460 kts 298°
2026-05-06 02:03 45.85713 23.08604 36107 ft 460 kts 298°
2026-05-06 02:04 45.88708 23.00486 36121 ft 460 kts 298°
2026-05-06 02:04 45.91623 22.92563 36110 ft 460 kts 298°
2026-05-06 02:05 45.94601 22.84441 36109 ft 459 kts 298°
2026-05-06 02:05 45.97573 22.76314 36109 ft 459 kts 298°
2026-05-06 02:06 46.00532 22.68198 36097 ft 459 kts 298°
2026-05-06 02:06 46.03491 22.60059 36103 ft 459 kts 298°
2026-05-06 02:07 46.06444 22.51911 36095 ft 459 kts 298°
2026-05-06 02:07 46.09388 22.43762 36107 ft 458 kts 298°
2026-05-06 02:08 46.12329 22.35595 36083 ft 459 kts 298°
2026-05-06 02:08 46.15249 22.27465 36076 ft 459 kts 297°
2026-05-06 02:09 46.18182 22.19272 36069 ft 460 kts 297°
2026-05-06 02:09 46.21111 22.11065 36085 ft 460 kts 297°
2026-05-06 02:10 46.24040 22.02835 36080 ft 460 kts 297°
2026-05-06 02:10 46.26908 21.94749 36079 ft 460 kts 297°
2026-05-06 02:11 46.29824 21.86503 36074 ft 460 kts 297°
2026-05-06 02:11 46.32713 21.78308 36058 ft 460 kts 297°
2026-05-06 02:12 46.35614 21.70054 36070 ft 460 kts 297°
2026-05-06 02:12 46.38509 21.61793 36068 ft 460 kts 297°
2026-05-06 02:13 46.41396 21.53526 36050 ft 460 kts 297°
2026-05-06 02:13 46.44277 21.45251 36064 ft 460 kts 297°
2026-05-06 02:14 46.47154 21.36963 36065 ft 459 kts 296°
2026-05-06 02:14 46.50019 21.28686 36057 ft 459 kts 296°
2026-05-06 02:15 46.52856 21.20459 36059 ft 458 kts 296°
2026-05-06 02:15 46.55702 21.12183 36051 ft 458 kts 296°
2026-05-06 02:16 46.58538 21.03907 36046 ft 457 kts 296°
2026-05-06 02:16 46.60837 20.97182 36050 ft 457 kts 296°
2026-05-06 02:17 46.63661 20.88897 36052 ft 457 kts 296°
2026-05-06 02:17 46.66476 20.80610 36043 ft 456 kts 296°
2026-05-06 02:18 46.69283 20.72323 36042 ft 456 kts 296°
2026-05-06 02:18 46.72090 20.64003 35973 ft 458 kts 297°
2026-05-06 02:19 46.74905 20.55641 35986 ft 461 kts 297°
2026-05-06 02:19 46.77729 20.47222 35984 ft 463 kts 297°
2026-05-06 02:20 46.81978 20.34504 35986 ft 465 kts 297°
2026-05-06 02:21 46.84802 20.26016 35977 ft 465 kts 297°
2026-05-06 02:21 46.87622 20.17511 35996 ft 464 kts 297°
2026-05-06 02:22 46.90408 20.09084 36011 ft 463 kts 296°
2026-05-06 02:22 46.93206 20.00590 36019 ft 463 kts 296°
2026-05-06 02:23 46.95948 19.92241 36039 ft 462 kts 296°
2026-05-06 02:23 46.98724 19.83760 36047 ft 462 kts 296°
2026-05-06 02:24 47.01484 19.75300 36048 ft 462 kts 296°
2026-05-06 02:24 47.04221 19.66882 35980 ft 462 kts 296°
2026-05-06 02:25 47.06987 19.58348 35970 ft 462 kts 296°
2026-05-06 02:25 47.09757 19.49773 35979 ft 462 kts 296°
2026-05-06 02:26 47.12488 19.41288 35977 ft 462 kts 296°
2026-05-06 02:26 47.15230 19.32742 35988 ft 463 kts 296°
2026-05-06 02:27 47.17971 19.24173 35988 ft 463 kts 295°
2026-05-06 02:27 47.20703 19.15599 35994 ft 463 kts 295°
2026-05-06 02:28 47.23437 19.06992 35994 ft 464 kts 295°
2026-05-06 02:28 47.26105 18.98565 35987 ft 464 kts 295°
2026-05-06 02:29 47.28825 18.89946 35979 ft 464 kts 295°
2026-05-06 02:29 47.31546 18.81291 35978 ft 464 kts 295°
2026-05-06 02:30 47.34241 18.72692 35963 ft 465 kts 295°
2026-05-06 02:30 47.36946 18.64029 35970 ft 465 kts 294°
2026-05-06 02:31 47.39647 18.55352 35955 ft 465 kts 294°
2026-05-06 02:31 47.42345 18.46651 35960 ft 465 kts 294°
2026-05-06 02:32 47.45034 18.37951 35951 ft 465 kts 294°
2026-05-06 02:32 47.47705 18.29278 35941 ft 465 kts 294°
2026-05-06 02:33 47.50391 18.20528 35947 ft 465 kts 294°
2026-05-06 02:33 47.51277 18.17635 35947 ft 465 kts 294°
2026-05-06 02:34 47.55725 18.03058 35932 ft 465 kts 293°
2026-05-06 02:34 47.58307 17.94557 35923 ft 465 kts 293°
2026-05-06 02:35 47.60951 17.85821 35925 ft 465 kts 293°
2026-05-06 02:35 47.63596 17.77054 35966 ft 465 kts 293°
2026-05-06 02:36 47.66233 17.68278 35968 ft 466 kts 293°
2026-05-06 02:36 47.68864 17.59493 35955 ft 466 kts 293°
2026-05-06 02:37 47.71493 17.50684 35940 ft 467 kts 293°
2026-05-06 02:37 47.74117 17.41858 35922 ft 467 kts 292°
2026-05-06 02:38 47.76734 17.33024 35904 ft 467 kts 292°
2026-05-06 02:38 47.79346 17.24176 35896 ft 467 kts 292°
2026-05-06 02:39 47.81935 17.15378 35896 ft 466 kts 292°
2026-05-06 02:39 47.84529 17.06533 35913 ft 466 kts 292°
2026-05-06 02:40 47.87071 16.97846 35913 ft 467 kts 292°
2026-05-06 02:40 47.89660 16.88969 35909 ft 467 kts 292°
2026-05-06 02:41 47.92227 16.80134 35894 ft 467 kts 292°
2026-05-06 02:41 47.94804 16.71231 35891 ft 467 kts 292°
2026-05-06 02:42 47.97371 16.62326 35890 ft 467 kts 292°
2026-05-06 02:42 47.99928 16.53427 35884 ft 467 kts 291°
2026-05-06 02:43 48.02480 16.44512 35884 ft 467 kts 291°
2026-05-06 02:43 48.05028 16.35579 35894 ft 467 kts 291°
2026-05-06 02:44 48.07551 16.26700 35892 ft 467 kts 291°
2026-05-06 02:44 48.10082 16.17757 35892 ft 467 kts 291°
2026-05-06 02:45 48.12608 16.08802 35889 ft 466 kts 291°
2026-05-06 02:45 48.15105 15.99915 35893 ft 466 kts 291°
2026-05-06 02:46 48.17581 15.91069 35891 ft 466 kts 291°
2026-05-06 02:46 48.20080 15.82109 35888 ft 465 kts 291°
2026-05-06 02:47 48.22571 15.73145 35894 ft 465 kts 291°
2026-05-06 02:47 48.25049 15.64190 35892 ft 465 kts 290°
2026-05-06 02:48 48.27522 15.55224 35894 ft 465 kts 290°
2026-05-06 02:48 48.29974 15.46298 35888 ft 465 kts 290°
2026-05-06 02:49 48.32423 15.37348 35888 ft 465 kts 290°
2026-05-06 02:49 48.34882 15.28330 35881 ft 465 kts 290°
2026-05-06 02:50 48.37320 15.19355 35896 ft 465 kts 290°
2026-05-06 02:50 48.39756 15.10350 35873 ft 465 kts 289°
2026-05-06 02:51 48.42187 15.01330 35886 ft 465 kts 289°
2026-05-06 02:51 48.44560 14.92494 35889 ft 464 kts 289°
2026-05-06 02:52 48.46976 14.83459 35875 ft 465 kts 289°
2026-05-06 02:52 48.49366 14.74489 35886 ft 464 kts 289°
2026-05-06 02:53 48.51765 14.65451 35877 ft 464 kts 289°
2026-05-06 02:53 48.54154 14.56414 35879 ft 463 kts 289°
2026-05-06 02:54 48.56533 14.47380 35883 ft 463 kts 289°
2026-05-06 02:54 48.58905 14.38336 35887 ft 463 kts 289°
2026-05-06 02:55 48.61268 14.29293 35886 ft 462 kts 289°
2026-05-06 02:55 48.63619 14.20256 35889 ft 461 kts 289°
2026-05-06 02:56 48.65964 14.11212 35889 ft 461 kts 289°
2026-05-06 02:56 48.68299 14.02170 35903 ft 461 kts 288°
2026-05-06 02:57 48.70565 13.93358 35890 ft 461 kts 288°
2026-05-06 02:57 48.72886 13.84295 35890 ft 462 kts 288°
2026-05-06 02:58 48.75204 13.75214 35887 ft 462 kts 288°
2026-05-06 02:58 48.77489 13.66116 35885 ft 461 kts 287°
2026-05-06 02:59 48.79677 13.56964 35891 ft 460 kts 287°
2026-05-06 02:59 48.81466 13.49398 35881 ft 460 kts 287°
2026-05-06 03:00 48.83634 13.40238 35881 ft 459 kts 287°
2026-05-06 03:00 48.85793 13.31117 35883 ft 459 kts 287°
2026-05-06 03:01 48.87948 13.21988 35893 ft 458 kts 287°
2026-05-06 03:01 48.90088 13.12883 35881 ft 457 kts 287°
2026-05-06 03:02 48.92216 13.03788 35877 ft 457 kts 287°
2026-05-06 03:02 48.94286 12.94904 35878 ft 456 kts 287°
2026-05-06 03:03 48.96399 12.85797 35881 ft 456 kts 287°
2026-05-06 03:03 48.98506 12.76675 35878 ft 456 kts 287°
2026-05-06 03:04 49.00606 12.67548 35875 ft 457 kts 286°
2026-05-06 03:04 49.02696 12.58426 35874 ft 457 kts 286°
2026-05-06 03:05 49.04787 12.49261 35878 ft 457 kts 286°
2026-05-06 03:05 49.06853 12.40160 35889 ft 457 kts 286°
2026-05-06 03:06 49.08925 12.30998 35889 ft 457 kts 286°
2026-05-06 03:06 49.10985 12.21852 35884 ft 457 kts 286°
2026-05-06 03:07 49.13039 12.12685 35888 ft 456 kts 286°
2026-05-06 03:07 49.15085 12.03521 35885 ft 456 kts 285°
2026-05-06 03:08 49.16935 11.95197 35896 ft 456 kts 285°
2026-05-06 03:08 49.18938 11.86144 35887 ft 456 kts 285°
2026-05-06 03:09 49.20967 11.76935 35891 ft 455 kts 285°
2026-05-06 03:09 49.22878 11.68232 35888 ft 455 kts 285°
2026-05-06 03:10 49.24834 11.59280 35901 ft 455 kts 285°
2026-05-06 03:10 49.26779 11.50340 35901 ft 455 kts 285°
2026-05-06 03:11 49.28772 11.41139 35899 ft 456 kts 285°
2026-05-06 03:11 49.30783 11.31812 35917 ft 455 kts 285°
2026-05-06 03:12 49.32734 11.22723 35900 ft 456 kts 284°
2026-05-06 03:12 49.34588 11.14048 35896 ft 456 kts 284°
2026-05-06 03:13 49.36552 11.04822 35890 ft 455 kts 284°
2026-05-06 03:13 49.38145 10.97316 35891 ft 454 kts 284°
2026-05-06 03:14 49.40616 10.88353 35924 ft 458 kts 292°
2026-05-06 03:14 49.43444 10.79746 35925 ft 458 kts 292°
2026-05-06 03:15 49.46152 10.71495 35930 ft 458 kts 292°
2026-05-06 03:15 49.48904 10.63014 35917 ft 458 kts 292°
2026-05-06 03:16 49.51649 10.54476 35904 ft 458 kts 291°
2026-05-06 03:16 49.54449 10.45733 35897 ft 458 kts 291°
2026-05-06 03:17 49.57319 10.36738 35913 ft 457 kts 291°
2026-05-06 03:17 49.59958 10.28437 35910 ft 459 kts 291°
2026-05-06 03:18 49.62671 10.19877 35914 ft 460 kts 291°
2026-05-06 03:18 49.65388 10.11276 35915 ft 460 kts 291°
2026-05-06 03:19 49.67968 10.03081 35923 ft 461 kts 291°
2026-05-06 03:19 49.70444 9.95189 35930 ft 461 kts 291°
2026-05-06 03:20 49.74479 9.82277 35920 ft 462 kts 291°
2026-05-06 03:20 49.77048 9.74021 35918 ft 463 kts 291°
2026-05-06 03:21 49.79716 9.65418 35926 ft 463 kts 291°
2026-05-06 03:21 49.82476 9.56488 35920 ft 463 kts 291°
2026-05-06 03:22 49.85266 9.47425 35923 ft 463 kts 291°
2026-05-06 03:22 49.88011 9.38475 35918 ft 462 kts 291°
2026-05-06 03:23 49.90781 9.29410 35920 ft 462 kts 291°
2026-05-06 03:23 49.93525 9.20396 35923 ft 462 kts 291°
2026-05-06 03:24 49.96205 9.11561 35999 ft 461 kts 291°
2026-05-06 03:24 49.98970 9.02413 35886 ft 464 kts 291°
2026-05-06 03:25 50.01648 8.93521 35850 ft 464 kts 291°
2026-05-06 03:25 50.04317 8.84631 35820 ft 463 kts 291°
2026-05-06 03:26 50.06864 8.75382 35788 ft 460 kts 287°
2026-05-06 03:26 50.09064 8.66033 35776 ft 460 kts 286°
2026-05-06 03:27 50.11239 8.56643 35783 ft 460 kts 286°
2026-05-06 03:27 50.13420 8.47281 35794 ft 461 kts 286°
2026-05-06 03:28 50.15581 8.38025 35819 ft 461 kts 286°
2026-05-06 03:28 50.17795 8.28518 35834 ft 462 kts 286°
2026-05-06 03:29 50.19940 8.19258 35851 ft 462 kts 286°
2026-05-06 03:29 50.22117 8.09820 35865 ft 462 kts 286°
2026-05-06 03:30 50.24281 8.00398 35881 ft 462 kts 286°
2026-05-06 03:30 50.26165 7.92156 35901 ft 461 kts 286°
2026-05-06 03:31 50.28310 7.82739 35930 ft 461 kts 286°
2026-05-06 03:31 50.30455 7.73280 35899 ft 461 kts 286°
2026-05-06 03:32 50.32572 7.63900 35925 ft 460 kts 286°
2026-05-06 03:32 50.34663 7.54597 35904 ft 460 kts 285°
2026-05-06 03:33 50.36791 7.45082 35882 ft 459 kts 285°
2026-05-06 03:33 50.38893 7.35643 35869 ft 459 kts 285°
2026-05-06 03:34 50.40987 7.26197 35856 ft 459 kts 285°
2026-05-06 03:34 50.42961 7.17252 35860 ft 459 kts 285°
2026-05-06 03:35 50.45009 7.07931 35861 ft 459 kts 285°
2026-05-06 03:35 50.46976 6.98933 35871 ft 459 kts 285°
2026-05-06 03:36 50.49042 6.89453 35899 ft 460 kts 285°
2026-05-06 03:36 50.51021 6.80150 35903 ft 459 kts 283°
2026-05-06 03:37 50.52800 6.70249 35895 ft 458 kts 282°
2026-05-06 03:37 50.54462 6.60588 35901 ft 458 kts 282°
2026-05-06 03:38 50.56114 6.51021 35918 ft 458 kts 282°
2026-05-06 03:38 50.57805 6.41263 35907 ft 459 kts 282°
2026-05-06 03:39 50.59420 6.31926 35907 ft 459 kts 282°
2026-05-06 03:39 50.61083 6.22263 35905 ft 459 kts 282°
2026-05-06 03:40 50.61898 6.17502 35290 ft 460 kts 282°
2026-05-06 03:40 50.62719 6.12695 36028 ft 454 kts 282°
2026-05-06 03:40 50.64364 6.03031 35903 ft 457 kts 282°
2026-05-06 03:41 50.65100 5.98679 35293 ft 460 kts 282°
2026-05-06 03:41 50.65945 5.93670 35991 ft 460 kts 282°
2026-05-06 03:41 50.67587 5.83911 35907 ft 460 kts 282°
2026-05-06 03:42 50.69214 5.74193 35899 ft 458 kts 281°
2026-05-06 03:42 50.70824 5.64511 35908 ft 457 kts 281°
2026-05-06 03:43 50.72163 5.56415 35911 ft 457 kts 281°
2026-05-06 03:43 50.73742 5.46817 35914 ft 458 kts 281°
2026-05-06 03:44 50.75367 5.36888 35911 ft 460 kts 281°
2026-05-06 03:44 50.76956 5.27115 35925 ft 461 kts 282°
2026-05-06 03:45 50.78540 5.17330 35915 ft 461 kts 282°
2026-05-06 03:45 50.80161 5.07467 35917 ft 463 kts 284°
2026-05-06 03:46 50.82504 4.98193 35934 ft 466 kts 294°
2026-05-06 03:46 50.85445 4.89043 35921 ft 467 kts 294°
2026-05-06 03:47 50.88374 4.79942 35929 ft 467 kts 294°
2026-05-06 03:47 50.91290 4.70747 36043 ft 467 kts 294°
2026-05-06 03:48 50.94241 4.61340 36021 ft 487 kts 295°
2026-05-06 03:48 50.97283 4.51650 35947 ft 490 kts 295°
2026-05-06 03:49 51.00306 4.41978 35938 ft 487 kts 295°
2026-05-06 03:49 51.03273 4.32410 35935 ft 485 kts 295°
2026-05-06 03:50 51.06243 4.22794 35938 ft 484 kts 295°
2026-05-06 03:50 51.09195 4.13199 35934 ft 483 kts 295°
2026-05-06 03:51 51.12147 4.03567 35934 ft 483 kts 295°
2026-05-06 03:51 51.15033 3.94116 35930 ft 484 kts 294°
2026-05-06 03:52 51.17973 3.84444 35930 ft 485 kts 294°
2026-05-06 03:52 51.20903 3.74761 35954 ft 485 kts 295°
2026-05-06 03:53 51.23853 3.65093 35935 ft 485 kts 297°
2026-05-06 03:53 51.27254 3.55810 35939 ft 484 kts 300°
2026-05-06 03:54 51.30725 3.46597 35947 ft 483 kts 299°
2026-05-06 03:54 51.34119 3.37331 35947 ft 482 kts 297°
2026-05-06 03:55 51.36800 3.27550 35952 ft 479 kts 288°
2026-05-06 03:55 51.39074 3.17598 35958 ft 478 kts 289°
2026-05-06 03:56 51.41424 3.07645 35960 ft 477 kts 289°
2026-05-06 03:56 51.43725 2.97887 35967 ft 477 kts 289°
2026-05-06 03:57 51.46056 2.87915 35969 ft 477 kts 289°
2026-05-06 03:57 51.48370 2.77953 35975 ft 477 kts 289°
2026-05-06 03:58 51.50677 2.67980 35978 ft 476 kts 288°
2026-05-06 03:58 51.52542 2.59870 35973 ft 475 kts 289°
2026-05-06 03:59 51.53485 2.55769 35969 ft 474 kts 289°
2026-05-06 04:00 51.54607 2.50879 35758 ft 473 kts 289°
2026-05-06 04:00 51.55742 2.45907 35351 ft 475 kts 288°
2026-05-06 04:00 51.56875 2.40910 35009 ft 475 kts 288°
2026-05-06 04:00 51.58005 2.35920 34683 ft 475 kts 289°
2026-05-06 04:01 51.59142 2.30910 34322 ft 476 kts 288°
2026-05-06 04:01 51.60273 2.25944 33967 ft 476 kts 288°
2026-05-06 04:01 51.61419 2.20910 33522 ft 476 kts 289°
2026-05-06 04:01 51.62555 2.15904 32878 ft 478 kts 288°
2026-05-06 04:02 51.63693 2.10871 31915 ft 478 kts 288°
2026-05-06 04:02 51.64825 2.05859 30986 ft 476 kts 289°
2026-05-06 04:02 51.65954 2.00866 30198 ft 472 kts 288°
2026-05-06 04:02 51.67025 1.96120 29506 ft 465 kts 288°
2026-05-06 04:03 51.68120 1.91251 28840 ft 458 kts 288°
2026-05-06 04:03 51.69194 1.86458 28206 ft 451 kts 288°
2026-05-06 04:03 51.70248 1.81738 27601 ft 444 kts 288°
2026-05-06 04:03 51.71285 1.77076 26988 ft 438 kts 288°
2026-05-06 04:04 51.72307 1.72479 26402 ft 433 kts 288°
2026-05-06 04:04 51.73302 1.67999 25810 ft 429 kts 289°
2026-05-06 04:04 51.74290 1.63473 25227 ft 421 kts 286°
2026-05-06 04:04 51.74757 1.58818 24618 ft 424 kts 268°
2026-05-06 04:05 51.74459 1.54094 24061 ft 431 kts 262°
2026-05-06 04:05 51.74094 1.49292 23355 ft 429 kts 263°
2026-05-06 04:05 51.73751 1.44516 22640 ft 426 kts 263°
2026-05-06 04:05 51.73427 1.39802 22001 ft 420 kts 264°
2026-05-06 04:06 51.73115 1.35155 21379 ft 413 kts 264°
2026-05-06 04:06 51.72810 1.30571 20763 ft 408 kts 264°
2026-05-06 04:06 51.72509 1.26048 20160 ft 403 kts 264°
2026-05-06 04:06 51.72208 1.21555 19570 ft 402 kts 264°
2026-05-06 04:07 51.71907 1.17077 18985 ft 401 kts 264°
2026-05-06 04:07 51.71604 1.12630 18400 ft 398 kts 264°
2026-05-06 04:07 51.71302 1.08210 17742 ft 394 kts 264°
2026-05-06 04:07 51.71003 1.03851 17125 ft 390 kts 264°
2026-05-06 04:08 51.70718 0.99707 16558 ft 387 kts 265°
2026-05-06 04:08 51.70422 0.95427 15998 ft 386 kts 264°
2026-05-06 04:08 51.70129 0.91216 15522 ft 381 kts 264°
2026-05-06 04:08 51.69831 0.86928 15052 ft 378 kts 265°
2026-05-06 04:09 51.69538 0.82722 14591 ft 376 kts 264°
2026-05-06 04:09 51.69244 0.78545 14142 ft 374 kts 265°
2026-05-06 04:09 51.68952 0.74396 13665 ft 372 kts 265°
2026-05-06 04:09 51.68659 0.70254 13166 ft 370 kts 265°
2026-05-06 04:10 51.68370 0.66211 12712 ft 366 kts 265°
2026-05-06 04:10 51.68081 0.62181 12251 ft 359 kts 264°
2026-05-06 04:10 51.67795 0.58216 11814 ft 353 kts 265°
2026-05-06 04:10 51.67513 0.54320 11382 ft 347 kts 265°
2026-05-06 04:11 51.67235 0.50487 10949 ft 342 kts 265°
2026-05-06 04:11 51.66960 0.46715 10533 ft 337 kts 265°
2026-05-06 04:11 51.66690 0.43022 10113 ft 323 kts 265°
2026-05-06 04:11 51.66436 0.39592 9801 ft 293 kts 265°
2026-05-06 04:12 51.66201 0.36436 9381 ft 275 kts 265°
2026-05-06 04:12 51.65977 0.33396 9048 ft 276 kts 265°
2026-05-06 04:12 51.65749 0.30312 8686 ft 278 kts 265°
2026-05-06 04:12 51.65522 0.27285 8511 ft 268 kts 265°
2026-05-06 04:13 51.65302 0.24350 8020 ft 260 kts 266°
2026-05-06 04:13 51.65089 0.21535 7689 ft 247 kts 266°
2026-05-06 04:13 51.64886 0.18856 7375 ft 237 kts 266°
2026-05-06 04:13 51.64690 0.16239 7109 ft 241 kts 266°
2026-05-06 04:14 51.64490 0.13573 6942 ft 237 kts 267°
2026-05-06 04:14 51.64300 0.10956 6817 ft 233 kts 267°
2026-05-06 04:14 51.64120 0.08386 6705 ft 230 kts 268°
2026-05-06 04:14 51.63949 0.05804 6612 ft 233 kts 268°
2026-05-06 04:15 51.63786 0.03190 6505 ft 236 kts 268°
2026-05-06 04:15 51.63632 0.00575 6400 ft 234 kts 269°
2026-05-06 04:15 51.63496 -0.01894 6223 ft 232 kts 267°
2026-05-06 04:15 51.63375 -0.04245 6150 ft 231 kts 268°
2026-05-06 04:16 51.63250 -0.06826 6061 ft 230 kts 268°
2026-05-06 04:16 51.63134 -0.09399 5950 ft 231 kts 268°
2026-05-06 04:16 51.63028 -0.11978 5849 ft 232 kts 269°
2026-05-06 04:16 51.62929 -0.14574 5735 ft 233 kts 269°
2026-05-06 04:17 51.62839 -0.17185 5636 ft 233 kts 269°
2026-05-06 04:17 51.62758 -0.19799 5527 ft 234 kts 269°
2026-05-06 04:17 51.62686 -0.22419 5420 ft 235 kts 270°
2026-05-06 04:17 51.62623 -0.25042 5321 ft 235 kts 270°
2026-05-06 04:18 51.62573 -0.27637 5212 ft 235 kts 270°
2026-05-06 04:18 51.62529 -0.30272 5103 ft 236 kts 271°
2026-05-06 04:18 51.62494 -0.32903 4997 ft 235 kts 271°
2026-05-06 04:18 51.62467 -0.35534 4900 ft 235 kts 271°
2026-05-06 04:19 51.62450 -0.38164 4793 ft 235 kts 272°
2026-05-06 04:19 51.62441 -0.40788 4697 ft 234 kts 272°
2026-05-06 04:19 51.62441 -0.43410 4591 ft 234 kts 272°
2026-05-06 04:19 51.62450 -0.46023 4496 ft 233 kts 273°
2026-05-06 04:20 51.62466 -0.48617 4404 ft 232 kts 273°
2026-05-06 04:20 51.62492 -0.51215 4315 ft 231 kts 274°
2026-05-06 04:20 51.62526 -0.53793 4225 ft 230 kts 274°
2026-05-06 04:20 51.62568 -0.56370 4142 ft 230 kts 275°
2026-05-06 04:21 51.62620 -0.58953 4076 ft 231 kts 275°
2026-05-06 04:21 51.62680 -0.61538 4026 ft 231 kts 275°
2026-05-06 04:21 51.62750 -0.64117 4016 ft 230 kts 275°
2026-05-06 04:21 51.62827 -0.66695 4007 ft 230 kts 276°
2026-05-06 04:22 51.62834 -0.69261 3991 ft 228 kts 263°
2026-05-06 04:22 51.62119 -0.71567 4017 ft 239 kts 229°
2026-05-06 04:22 51.60693 -0.72952 4010 ft 244 kts 195°
2026-05-06 04:23 51.57373 -0.73757 4008 ft 245 kts 182°
2026-05-06 04:23 51.55632 -0.73825 3639 ft 254 kts 181°
2026-05-06 04:23 51.53880 -0.73864 3423 ft 248 kts 181°
2026-05-06 04:23 51.52210 -0.73911 3264 ft 238 kts 182°
2026-05-06 04:24 51.50564 -0.74219 3147 ft 235 kts 189°
2026-05-06 04:24 51.48955 -0.74518 3055 ft 238 kts 176°
2026-05-06 04:24 51.47456 -0.73534 3023 ft 236 kts 136°
2026-05-06 04:24 51.46568 -0.71335 2940 ft 233 kts 104°
2026-05-06 04:25 51.46543 -0.68827 2625 ft 228 kts 71°
2026-05-06 04:25 51.47101 -0.66527 2347 ft 219 kts 67°
2026-05-06 04:25 51.47481 -0.64246 2069 ft 203 kts 79°
2026-05-06 04:25 51.47633 -0.62143 1783 ft 174 kts 82°
2026-05-06 04:26 51.47694 -0.60391 1561 ft 145 kts 86°
2026-05-06 04:26 51.47706 -0.58851 1375 ft 133 kts 87°
2026-05-06 04:26 51.47713 -0.57389 1199 ft 130 kts 87°
2026-05-06 04:26 51.47720 -0.55927 1033 ft 132 kts 87°
2026-05-06 04:27 51.47726 -0.54438 847 ft 133 kts 86°
2026-05-06 04:27 51.47734 -0.52945 671 ft 134 kts 87°
2026-05-06 04:27 51.47740 -0.51446 476 ft 134 kts 87°
2026-05-06 04:27 51.47734 -0.49950 291 ft 133 kts 86°
2026-05-06 04:28 51.47746 -0.48470 136 ft 133 kts 83°
2026-05-06 04:28 51.47755 -0.47074 96 ft 89 kts 90°
2026-05-06 04:28 51.47755 -0.46837 97 ft 0 kts 90°
2026-05-06 04:28 51.47755 -0.46836 97 ft 0 kts 90°
2026-05-06 04:29 51.47758 -0.46297 95 ft 37 kts 91°
2026-05-06 04:29 51.47693 -0.46116 94 ft 16 kts 143°
2026-05-06 04:29 51.47640 -0.46066 91 ft 3 kts 157°
2026-05-06 04:29 51.47611 -0.46063 92 ft 6 kts 186°
2026-05-06 04:30 51.47542 -0.46087 95 ft 15 kts 199°
2026-05-06 04:30 51.47522 -0.46144 94 ft 11 kts 259°
2026-05-06 04:30 51.47517 -0.46272 91 ft 12 kts 268°
2026-05-06 04:30 51.47513 -0.46465 94 ft 14 kts 272°
2026-05-06 04:31 51.47513 -0.46569 94 ft 14 kts 270°
2026-05-06 04:31 51.47499 -0.46759 93 ft 22 kts 257°
2026-05-06 04:31 51.47493 -0.47003 91 ft 22 kts 269°
2026-05-06 04:31 51.47491 -0.47251 91 ft 22 kts 269°
2026-05-06 04:32 51.47490 -0.47493 91 ft 22 kts 269°
2026-05-06 04:32 51.47489 -0.47737 93 ft 22 kts 270°
2026-05-06 04:32 51.47488 -0.47981 93 ft 22 kts 270°
2026-05-06 04:32 51.47490 -0.48226 92 ft 22 kts 270°
2026-05-06 04:33 51.47457 -0.48348 95 ft 9 kts 195°
2026-05-06 04:33 51.47309 -0.48354 95 ft 26 kts 181°
2026-05-06 04:33 51.47216 -0.48357 94 ft 6 kts 181°
2026-05-06 04:33 51.47196 -0.48351 94 ft 4 kts 154°
2026-05-06 04:34 51.47180 -0.48302 94 ft 6 kts 99°
2026-05-06 04:34 51.47181 -0.48255 94 ft 2 kts 90°
2026-05-06 04:34 51.47181 -0.48240 94 ft 0 kts 90°